Wetterdaten: aktuell Samstag, 25.05.2019 17:10
Datum Zeit Temp. 2m Temp. 5cm Temp. -10cm Feuchte 2m Luftdruck Regen Wind Richtung Richtung Taupunkt Windchill Windben
25.05.2019 17:10 20,9 C 22,5 C 15,5 C 50 % 1013,4 hPa 0,0 l/m 7,1 km/h (2 Bft) W 270 10,1 C 20,6 C 7,7 km/h (2 Bft)
25.05.2019 17:08 20,9 C 22,9 C 15,5 C 51 % 1013,4 hPa 0,0 l/m 6,4 km/h (2 Bft) W-NW 292 10,4 C 20,9 C 18,2 km/h (3 Bft)
25.05.2019 17:06 20,9 C 23,5 C 15,5 C 51 % 1013,4 hPa 0,0 l/m 6,4 km/h (2 Bft) W-NW 292 10,4 C 20,9 C 18,2 km/h (3 Bft)
25.05.2019 17:04 20,7 C 23,2 C 15,5 C 51 % 1013,4 hPa 0,0 l/m 5,6 km/h (1 Bft) W-NW 292 10,2 C 20,7 C 5,8 km/h (2 Bft)
25.05.2019 17:02 20,4 C 22,6 C 15,5 C 51 % 1013,4 hPa 0,0 l/m 6,0 km/h (2 Bft) SW 225 9,9 C 20,4 C 12,7 km/h (3 Bft)
25.05.2019 17:00 20,0 C 21,2 C 15,5 C 50 % 1013,4 hPa 0,0 l/m 6,0 km/h (2 Bft) W-NW 292 9,3 C 20,0 C 11,8 km/h (2 Bft)
25.05.2019 16:58 20,0 C 20,8 C 15,5 C 50 % 1013,4 hPa 0,0 l/m 6,8 km/h (2 Bft) W-NW 292 9,3 C 19,8 C 6,4 km/h (2 Bft)
25.05.2019 16:56 19,9 C 20,6 C 15,5 C 50 % 1013,4 hPa 0,0 l/m 7,2 km/h (2 Bft) W 270 9,2 C 19,6 C 10,6 km/h (2 Bft)
25.05.2019 16:54 20,0 C 20,5 C 15,4 C 50 % 1013,4 hPa 0,0 l/m 7,1 km/h (2 Bft) NW 315 9,3 C 19,7 C 6,6 km/h (2 Bft)
25.05.2019 16:52 20,2 C 21,2 C 15,4 C 50 % 1013,4 hPa 0,0 l/m 6,1 km/h (2 Bft) W 270 9,4 C 20,2 C 7,7 km/h (2 Bft)
25.05.2019 16:50 20,3 C 21,6 C 15,4 C 50 % 1013,4 hPa 0,0 l/m 4,8 km/h (1 Bft) W 270 9,5 C 20,3 C 10,0 km/h (2 Bft)
25.05.2019 16:48 20,5 C 21,6 C 15,4 C 50 % 1013,4 hPa 0,0 l/m 4,7 km/h (1 Bft) W-NW 292 9,7 C 20,5 C 11,8 km/h (2 Bft)
25.05.2019 16:46 20,5 C 21,6 C 15,4 C 50 % 1013,8 hPa 0,0 l/m 4,7 km/h (1 Bft) W-NW 292 9,7 C 20,5 C 11,8 km/h (2 Bft)
25.05.2019 16:44 20,4 C 20,8 C 15,4 C 50 % 1013,8 hPa 0,0 l/m 4,0 km/h (1 Bft) NW 315 9,6 C 20,4 C 11,0 km/h (2 Bft)
25.05.2019 16:42 20,6 C 21,2 C 15,4 C 50 % 1013,8 hPa 0,0 l/m 5,1 km/h (1 Bft) N-NW 337 9,8 C 20,6 C 2,7 km/h (1 Bft)
25.05.2019 16:40 20,7 C 22,6 C 15,4 C 50 % 1013,8 hPa 0,0 l/m 7,1 km/h (2 Bft) SO 135 9,9 C 20,4 C 2,3 km/h (1 Bft)
25.05.2019 16:38 20,6 C 23,1 C 15,4 C 50 % 1013,8 hPa 0,0 l/m 7,6 km/h (2 Bft) S-SW 202 9,8 C 20,1 C 5,2 km/h (1 Bft)
25.05.2019 16:36 21,0 C 24,9 C 15,3 C 50 % 1013,8 hPa 0,0 l/m 7,2 km/h (2 Bft) W-NW 292 10,2 C 20,7 C 18,5 km/h (3 Bft)
25.05.2019 16:34 20,8 C 25,1 C 15,3 C 50 % 1013,8 hPa 0,0 l/m 7,4 km/h (2 Bft) NW 315 10,0 C 20,4 C 3,9 km/h (1 Bft)
25.05.2019 16:32 20,8 C 25,3 C 15,3 C 51 % 1013,8 hPa 0,0 l/m 7,4 km/h (2 Bft) SW 225 10,3 C 20,4 C 16,2 km/h (3 Bft)
25.05.2019 16:30 20,8 C 25,4 C 15,3 C 51 % 1013,8 hPa 0,0 l/m 6,8 km/h (2 Bft) NW 315 10,3 C 20,7 C 12,0 km/h (2 Bft)
25.05.2019 16:28 20,5 C 24,7 C 15,3 C 50 % 1013,8 hPa 0,0 l/m 8,0 km/h (2 Bft) NW 315 9,7 C 19,9 C 5,4 km/h (1 Bft)
25.05.2019 16:26 20,5 C 23,9 C 15,3 C 50 % 1013,9 hPa 0,0 l/m 8,0 km/h (2 Bft) NW 315 9,7 C 19,9 C 5,4 km/h (1 Bft)
25.05.2019 16:24 20,3 C 22,5 C 15,2 C 51 % 1013,9 hPa 0,0 l/m 8,5 km/h (2 Bft) NW 315 9,8 C 19,5 C 11,6 km/h (2 Bft)
25.05.2019 16:22 20,0 C 21,5 C 15,2 C 50 % 1013,9 hPa 0,0 l/m 9,0 km/h (2 Bft) W-NW 292 9,3 C 19,0 C 6,0 km/h (2 Bft)
25.05.2019 16:20 20,0 C 21,4 C 15,2 C 50 % 1013,9 hPa 0,0 l/m 9,5 km/h (2 Bft) W 270 9,3 C 18,8 C 13,5 km/h (3 Bft)
25.05.2019 16:18 20,1 C 21,9 C 15,2 C 50 % 1013,9 hPa 0,0 l/m 8,9 km/h (2 Bft) W-NW 292 9,3 C 19,1 C 14,3 km/h (3 Bft)
25.05.2019 16:16 20,3 C 22,9 C 15,2 C 49 % 1013,9 hPa 0,0 l/m 7,9 km/h (2 Bft) W-NW 292 9,2 C 19,7 C 15,8 km/h (3 Bft)
25.05.2019 16:14 20,6 C 23,8 C 15,2 C 49 % 1013,9 hPa 0,0 l/m 6,0 km/h (2 Bft) W 270 9,5 C 20,6 C 13,7 km/h (3 Bft)
25.05.2019 16:12 20,8 C 24,6 C 15,2 C 50 % 1013,9 hPa 0,0 l/m 4,3 km/h (1 Bft) W 270 10,0 C 20,8 C 10,8 km/h (2 Bft)
25.05.2019 16:10 21,1 C 26,2 C 15,2 C 49 % 1013,9 hPa 0,0 l/m 3,2 km/h (1 Bft) W-SW 247 10,0 C 21,1 C 10,0 km/h (2 Bft)
25.05.2019 16:08 21,0 C 27,6 C 15,1 C 48 % 1013,9 hPa 0,0 l/m 1,6 km/h (1 Bft) W 270 9,6 C 21,0 C 2,3 km/h (1 Bft)
25.05.2019 16:06 21,0 C 29,0 C 15,1 C 48 % 1013,9 hPa 0,0 l/m 1,6 km/h (1 Bft) W 270 9,6 C 21,0 C 2,3 km/h (1 Bft)
25.05.2019 16:04 20,6 C 28,4 C 15,1 C 48 % 1013,9 hPa 0,0 l/m 1,6 km/h (1 Bft) SW 225 9,2 C 20,6 C 1,9 km/h (1 Bft)
25.05.2019 16:02 20,4 C 27,1 C 15,1 C 47 % 1013,9 hPa 0,0 l/m 1,8 km/h (1 Bft) O-SO 112 8,7 C 20,4 C 3,5 km/h (1 Bft)
25.05.2019 16:00 20,3 C 25,3 C 15,1 C 47 % 1013,9 hPa 0,0 l/m 1,4 km/h (1 Bft) O 90 8,6 C 20,3 C 0,0 km/h (0 Bft)
25.05.2019 15:58 20,1 C 23,7 C 15,1 C 48 % 1013,9 hPa 0,0 l/m 1,4 km/h (1 Bft) O-NO 67 8,7 C 20,1 C 3,1 km/h (1 Bft)
25.05.2019 15:56 20,2 C 23,9 C 15,1 C 48 % 1013,9 hPa 0,0 l/m 1,0 km/h (0 Bft) O-NO 67 8,8 C 20,2 C 4,2 km/h (1 Bft)
25.05.2019 15:54 20,2 C 24,6 C 15,1 C 48 % 1013,9 hPa 0,0 l/m 1,1 km/h (1 Bft) N-NO 22 8,8 C 20,2 C 4,6 km/h (1 Bft)
25.05.2019 15:52 20,3 C 24,8 C 15,0 C 49 % 1013,9 hPa 0,0 l/m 0,8 km/h (0 Bft) O-NO 67 9,2 C 20,3 C 4,2 km/h (1 Bft)
25.05.2019 15:50 20,4 C 24,4 C 15,0 C 50 % 1013,9 hPa 0,0 l/m 1,0 km/h (0 Bft) O-SO 112 9,6 C 20,4 C 0,0 km/h (0 Bft)
25.05.2019 15:48 20,1 C 24,0 C 15,0 C 49 % 1013,9 hPa 0,0 l/m 1,4 km/h (1 Bft) SW 225 9,0 C 20,1 C 3,5 km/h (1 Bft)
25.05.2019 15:46 20,1 C 23,2 C 15,0 C 49 % 1014,0 hPa 0,0 l/m 1,4 km/h (1 Bft) SW 225 9,0 C 20,1 C 3,5 km/h (1 Bft)
25.05.2019 15:44 20,1 C 22,9 C 15,0 C 49 % 1014,0 hPa 0,0 l/m 1,4 km/h (1 Bft) S-SW 202 9,0 C 20,1 C 1,9 km/h (1 Bft)
25.05.2019 15:42 20,1 C 22,7 C 15,0 C 50 % 1014,0 hPa 0,0 l/m 1,8 km/h (1 Bft) SO 135 9,3 C 20,1 C 3,7 km/h (1 Bft)
25.05.2019 15:40 20,0 C 22,5 C 15,0 C 49 % 1014,0 hPa 0,0 l/m 2,1 km/h (1 Bft) S-SO 157 9,0 C 20,0 C 1,9 km/h (1 Bft)
25.05.2019 15:38 20,0 C 22,2 C 15,0 C 49 % 1014,0 hPa 0,0 l/m 2,4 km/h (1 Bft) S 180 9,0 C 20,0 C 2,9 km/h (1 Bft)
25.05.2019 15:36 20,0 C 22,0 C 15,0 C 50 % 1014,0 hPa 0,0 l/m 3,2 km/h (1 Bft) S-SO 157 9,3 C 20,0 C 3,1 km/h (1 Bft)
25.05.2019 15:34 20,0 C 21,8 C 15,0 C 50 % 1014,0 hPa 0,0 l/m 3,5 km/h (1 Bft) S-SO 157 9,3 C 20,0 C 3,5 km/h (1 Bft)
25.05.2019 15:32 19,9 C 21,6 C 14,9 C 50 % 1014,0 hPa 0,0 l/m 4,0 km/h (1 Bft) SO 135 9,2 C 19,9 C 3,5 km/h (1 Bft)
25.05.2019 15:30 20,0 C 21,3 C 14,9 C 49 % 1014,0 hPa 0,0 l/m 4,8 km/h (1 Bft) S-SO 157 9,0 C 20,0 C 5,2 km/h (1 Bft)
25.05.2019 15:28 19,9 C 21,3 C 14,9 C 49 % 1014,0 hPa 0,0 l/m 5,5 km/h (1 Bft) SO 135 8,9 C 19,9 C 6,4 km/h (2 Bft)
25.05.2019 15:26 19,9 C 21,6 C 14,9 C 49 % 1014,1 hPa 0,0 l/m 5,5 km/h (1 Bft) SO 135 8,9 C 19,9 C 6,4 km/h (2 Bft)
25.05.2019 15:24 19,9 C 21,7 C 14,9 C 49 % 1014,1 hPa 0,0 l/m 5,5 km/h (1 Bft) S-SO 157 8,9 C 19,9 C 3,5 km/h (1 Bft)
25.05.2019 15:22 20,0 C 22,1 C 14,9 C 49 % 1014,1 hPa 0,0 l/m 5,8 km/h (2 Bft) SW 225 9,0 C 20,0 C 9,8 km/h (2 Bft)
25.05.2019 15:20 20,1 C 22,1 C 14,9 C 49 % 1014,1 hPa 0,0 l/m 5,1 km/h (1 Bft) SW 225 9,0 C 20,1 C 11,2 km/h (2 Bft)
25.05.2019 15:18 19,9 C 22,0 C 14,9 C 49 % 1014,1 hPa 0,0 l/m 4,8 km/h (1 Bft) SW 225 8,9 C 19,9 C 8,9 km/h (2 Bft)
25.05.2019 15:16 19,8 C 22,0 C 14,9 C 49 % 1014,1 hPa 0,0 l/m 4,3 km/h (1 Bft) S-SW 202 8,8 C 19,8 C 8,1 km/h (2 Bft)
25.05.2019 15:14 19,9 C 22,0 C 14,8 C 49 % 1014,1 hPa 0,0 l/m 3,4 km/h (1 Bft) W 270 8,9 C 19,9 C 6,0 km/h (2 Bft)
25.05.2019 15:12 20,0 C 22,7 C 14,8 C 48 % 1014,1 hPa 0,0 l/m 2,7 km/h (1 Bft) W 270 8,7 C 20,0 C 7,7 km/h (2 Bft)
25.05.2019 15:10 20,0 C 23,1 C 14,8 C 48 % 1014,1 hPa 0,0 l/m 2,7 km/h (1 Bft) S-SW 202 8,7 C 20,0 C 3,7 km/h (1 Bft)
25.05.2019 15:08 20,1 C 23,5 C 14,8 C 46 % 1014,1 hPa 0,0 l/m 4,3 km/h (1 Bft) W-NW 292 8,1 C 20,1 C 2,1 km/h (1 Bft)
25.05.2019 15:06 20,1 C 23,3 C 14,8 C 46 % 1014,1 hPa 0,0 l/m 4,3 km/h (1 Bft) W-NW 292 8,1 C 20,1 C 2,1 km/h (1 Bft)
25.05.2019 15:04 20,1 C 23,3 C 14,8 C 46 % 1014,1 hPa 0,0 l/m 4,8 km/h (1 Bft) S-SW 202 8,1 C 20,1 C 0,0 km/h (0 Bft)
25.05.2019 15:02 20,1 C 23,3 C 14,8 C 46 % 1014,1 hPa 0,0 l/m 7,7 km/h (2 Bft) S-SO 157 8,1 C 19,6 C 3,9 km/h (1 Bft)
25.05.2019 15:00 20,0 C 23,7 C 14,8 C 46 % 1014,1 hPa 0,0 l/m 10,6 km/h (2 Bft) SO 135 8,0 C 18,4 C 5,2 km/h (1 Bft)
25.05.2019 14:58 20,2 C 23,8 C 14,7 C 47 % 1014,1 hPa 0,0 l/m 11,3 km/h (2 Bft) O-SO 112 8,5 C 18,5 C 14,9 km/h (3 Bft)
25.05.2019 14:56 20,4 C 24,1 C 14,7 C 47 % 1014,1 hPa 0,0 l/m 11,3 km/h (2 Bft) O-NO 67 8,7 C 18,7 C 13,9 km/h (3 Bft)
25.05.2019 14:54 20,6 C 25,0 C 14,7 C 48 % 1014,1 hPa 0,0 l/m 11,9 km/h (2 Bft) NO 45 9,2 C 18,7 C 29,7 km/h (5 Bft)
25.05.2019 14:52 20,6 C 26,7 C 14,7 C 48 % 1014,1 hPa 0,0 l/m 11,6 km/h (2 Bft) NW 315 9,2 C 18,8 C 29,2 km/h (5 Bft)
25.05.2019 14:50 20,7 C 26,8 C 14,7 C 49 % 1014,1 hPa 0,0 l/m 8,4 km/h (2 Bft) W-NW 292 9,6 C 19,9 C 27,4 km/h (4 Bft)
25.05.2019 14:48 21,3 C 28,3 C 14,7 C 50 % 1014,1 hPa 0,0 l/m 6,0 km/h (2 Bft) W 270 10,4 C 21,3 C 17,4 km/h (3 Bft)
25.05.2019 14:46 21,3 C 31,8 C 14,7 C 50 % 1014,4 hPa 0,0 l/m 6,0 km/h (2 Bft) W 270 10,4 C 21,3 C 17,4 km/h (3 Bft)
25.05.2019 14:44 21,7 C 33,5 C 14,6 C 51 % 1014,4 hPa 0,0 l/m 5,5 km/h (1 Bft) W 270 11,1 C 21,7 C 15,8 km/h (3 Bft)
25.05.2019 14:42 21,5 C 34,1 C 14,6 C 50 % 1014,4 hPa 0,0 l/m 5,3 km/h (1 Bft) S-SW 202 10,6 C 21,5 C 5,8 km/h (2 Bft)
25.05.2019 14:40 21,2 C 34,5 C 14,6 C 49 % 1014,4 hPa 0,0 l/m 5,1 km/h (1 Bft) S-SW 202 10,1 C 21,2 C 6,0 km/h (2 Bft)
25.05.2019 14:38 20,8 C 34,3 C 14,6 C 48 % 1014,4 hPa 0,0 l/m 4,7 km/h (1 Bft) W-NW 292 9,4 C 20,8 C 6,0 km/h (2 Bft)
25.05.2019 14:36 20,7 C 35,1 C 14,6 C 48 % 1014,4 hPa 0,0 l/m 4,5 km/h (1 Bft) NO 45 9,3 C 20,7 C 2,7 km/h (1 Bft)
25.05.2019 14:34 21,2 C 35,4 C 14,6 C 50 % 1014,4 hPa 0,0 l/m 4,0 km/h (1 Bft) O-NO 67 10,4 C 21,2 C 15,3 km/h (3 Bft)
25.05.2019 14:32 21,4 C 35,1 C 14,6 C 50 % 1014,4 hPa 0,0 l/m 2,7 km/h (1 Bft) SO 135 10,5 C 21,4 C 10,4 km/h (2 Bft)
25.05.2019 14:30 20,9 C 33,7 C 14,5 C 49 % 1014,4 hPa 0,0 l/m 1,8 km/h (1 Bft) SO 135 9,8 C 20,9 C 6,4 km/h (2 Bft)
25.05.2019 14:28 20,2 C 32,2 C 14,5 C 49 % 1014,4 hPa 0,0 l/m 0,6 km/h (0 Bft) NO 45 9,1 C 20,2 C 3,5 km/h (1 Bft)
25.05.2019 14:26 20,2 C 32,0 C 14,5 C 49 % 1014,6 hPa 0,0 l/m 0,6 km/h (0 Bft) NO 45 9,1 C 20,2 C 3,5 km/h (1 Bft)
25.05.2019 14:24 19,8 C 28,9 C 14,5 C 50 % 1014,6 hPa 0,0 l/m 0,8 km/h (0 Bft) O-NO 67 9,1 C 19,8 C 3,7 km/h (1 Bft)
25.05.2019 14:22 19,4 C 23,9 C 14,5 C 49 % 1014,6 hPa 0,0 l/m 1,4 km/h (1 Bft) O-SO 112 8,4 C 19,4 C 0,0 km/h (0 Bft)
25.05.2019 14:20 19,4 C 23,4 C 14,5 C 50 % 1014,6 hPa 0,0 l/m 2,4 km/h (1 Bft) O-NO 67 8,7 C 19,4 C 0,0 km/h (0 Bft)
25.05.2019 14:18 19,4 C 23,3 C 14,5 C 50 % 1014,6 hPa 0,0 l/m 3,4 km/h (1 Bft) NO 45 8,7 C 19,4 C 2,1 km/h (1 Bft)
25.05.2019 14:16 19,3 C 23,1 C 14,5 C 50 % 1014,6 hPa 0,0 l/m 4,2 km/h (1 Bft) S-SW 202 8,6 C 19,3 C 0,0 km/h (0 Bft)
25.05.2019 14:14 19,2 C 22,7 C 14,5 C 51 % 1014,6 hPa 0,0 l/m 5,0 km/h (1 Bft) W-SW 247 8,8 C 19,2 C 2,3 km/h (1 Bft)
25.05.2019 14:12 19,2 C 22,3 C 14,4 C 51 % 1014,6 hPa 0,0 l/m 5,3 km/h (1 Bft) W-NW 292 8,8 C 19,2 C 8,7 km/h (2 Bft)
25.05.2019 14:10 19,2 C 22,2 C 14,4 C 52 % 1014,6 hPa 0,0 l/m 5,1 km/h (1 Bft) SW 225 9,1 C 19,2 C 8,5 km/h (2 Bft)
25.05.2019 14:08 19,2 C 22,2 C 14,4 C 52 % 1014,6 hPa 0,0 l/m 4,0 km/h (1 Bft) SW 225 9,1 C 19,2 C 5,6 km/h (1 Bft)
25.05.2019 14:06 19,2 C 22,3 C 14,4 C 52 % 1014,4 hPa 0,0 l/m 4,0 km/h (1 Bft) SW 225 9,1 C 19,2 C 5,6 km/h (1 Bft)
25.05.2019 14:04 19,1 C 22,2 C 14,4 C 52 % 1014,4 hPa 0,0 l/m 4,2 km/h (1 Bft) W-NW 292 9,0 C 19,1 C 7,9 km/h (2 Bft)
25.05.2019 14:02 19,1 C 22,1 C 14,4 C 52 % 1014,4 hPa 0,0 l/m 3,5 km/h (1 Bft) W-NW 292 9,0 C 19,1 C 7,9 km/h (2 Bft)
25.05.2019 14:00 19,0 C 21,8 C 14,4 C 51 % 1014,4 hPa 0,0 l/m 2,7 km/h (1 Bft) W 270 8,6 C 19,0 C 6,4 km/h (2 Bft)
25.05.2019 13:58 19,0 C 21,4 C 14,4 C 51 % 1014,4 hPa 0,0 l/m 2,3 km/h (1 Bft) W-NW 292 8,6 C 19,0 C 4,6 km/h (1 Bft)
25.05.2019 13:56 19,0 C 21,0 C 14,4 C 51 % 1014,4 hPa 0,0 l/m 1,9 km/h (1 Bft) W 270 8,6 C 19,0 C 4,4 km/h (1 Bft)
25.05.2019 13:54 19,1 C 20,8 C 14,4 C 51 % 1014,4 hPa 0,0 l/m 2,1 km/h (1 Bft) W 270 8,7 C 19,1 C 4,2 km/h (1 Bft)
25.05.2019 13:52 19,1 C 20,6 C 14,3 C 50 % 1014,4 hPa 0,0 l/m 2,6 km/h (1 Bft) SW 225 8,4 C 19,1 C 2,1 km/h (1 Bft)
25.05.2019 13:50 19,1 C 20,4 C 14,3 C 51 % 1014,4 hPa 0,0 l/m 3,7 km/h (1 Bft) W 270 8,7 C 19,1 C 4,2 km/h (1 Bft)
25.05.2019 13:48 19,2 C 20,4 C 14,3 C 50 % 1014,4 hPa 0,0 l/m 4,8 km/h (1 Bft) NW 315 8,5 C 19,2 C 4,2 km/h (1 Bft)
25.05.2019 13:46 19,2 C 20,3 C 14,3 C 50 % 1014,5 hPa 0,0 l/m 4,8 km/h (1 Bft) NW 315 8,5 C 19,2 C 4,2 km/h (1 Bft)
25.05.2019 13:44 19,2 C 20,3 C 14,3 C 50 % 1014,5 hPa 0,0 l/m 4,5 km/h (1 Bft) NW 315 8,5 C 19,2 C 7,3 km/h (2 Bft)
25.05.2019 13:42 19,2 C 20,9 C 14,3 C 50 % 1014,5 hPa 0,0 l/m 4,3 km/h (1 Bft) NW 315 8,5 C 19,2 C 6,8 km/h (2 Bft)
25.05.2019 13:40 19,4 C 21,7 C 14,3 C 50 % 1014,5 hPa 0,0 l/m 4,2 km/h (1 Bft) W 270 8,7 C 19,4 C 5,4 km/h (1 Bft)
25.05.2019 13:38 19,5 C 22,4 C 14,3 C 50 % 1014,5 hPa 0,0 l/m 4,3 km/h (1 Bft) W-NW 292 8,8 C 19,5 C 6,6 km/h (2 Bft)
25.05.2019 13:36 19,8 C 23,8 C 14,3 C 49 % 1014,5 hPa 0,0 l/m 4,5 km/h (1 Bft) W-SW 247 8,8 C 19,8 C 7,0 km/h (2 Bft)
25.05.2019 13:34 19,9 C 25,1 C 14,3 C 49 % 1014,5 hPa 0,0 l/m 4,7 km/h (1 Bft) O-SO 112 8,9 C 19,9 C 3,7 km/h (1 Bft)
25.05.2019 13:32 20,1 C 26,1 C 14,3 C 50 % 1014,5 hPa 0,0 l/m 4,5 km/h (1 Bft) S-SW 202 9,3 C 20,1 C 5,8 km/h (2 Bft)
25.05.2019 13:30 20,5 C 28,9 C 14,3 C 52 % 1014,5 hPa 0,0 l/m 3,7 km/h (1 Bft) W 270 10,3 C 20,5 C 9,3 km/h (2 Bft)
25.05.2019 13:28 20,5 C 31,0 C 14,3 C 51 % 1014,5 hPa 0,0 l/m 1,9 km/h (1 Bft) S-SW 202 10,0 C 20,5 C 5,0 km/h (1 Bft)
25.05.2019 13:26 20,5 C 30,7 C 14,2 C 51 % 1014,6 hPa 0,0 l/m 1,9 km/h (1 Bft) S-SW 202 10,0 C 20,5 C 5,0 km/h (1 Bft)
25.05.2019 13:24 20,3 C 30,5 C 14,2 C 50 % 1014,6 hPa 0,0 l/m 1,3 km/h (1 Bft) NW 315 9,5 C 20,3 C 5,2 km/h (1 Bft)
25.05.2019 13:22 20,2 C 30,3 C 14,2 C 50 % 1014,6 hPa 0,0 l/m 0,8 km/h (0 Bft) W-NW 292 9,4 C 20,2 C 4,4 km/h (1 Bft)
25.05.2019 13:20 20,3 C 29,9 C 14,2 C 50 % 1014,6 hPa 0,0 l/m 0,5 km/h (0 Bft) S-SW 202 9,5 C 20,3 C 3,5 km/h (1 Bft)
25.05.2019 13:18 19,9 C 30,0 C 14,2 C 50 % 1014,6 hPa 0,0 l/m 0,3 km/h (0 Bft) N 360 9,2 C 19,9 C 3,9 km/h (1 Bft)
25.05.2019 13:16 19,4 C 29,6 C 14,2 C 49 % 1014,6 hPa 0,0 l/m 0,2 km/h (0 Bft) SW 225 8,4 C 19,4 C 0,0 km/h (0 Bft)
25.05.2019 13:14 19,2 C 27,8 C 14,1 C 49 % 1014,6 hPa 0,0 l/m 0,2 km/h (0 Bft) NO 45 8,2 C 19,2 C 0,0 km/h (0 Bft)
25.05.2019 13:12 19,0 C 24,2 C 14,1 C 49 % 1014,6 hPa 0,0 l/m 0,3 km/h (0 Bft) O-NO 67 8,0 C 19,0 C 0,0 km/h (0 Bft)
25.05.2019 13:10 18,9 C 23,1 C 14,2 C 50 % 1014,6 hPa 0,0 l/m 0,6 km/h (0 Bft) O-NO 67 8,2 C 18,9 C 1,9 km/h (1 Bft)
25.05.2019 13:08 19,0 C 23,0 C 14,2 C 50 % 1014,6 hPa 0,0 l/m 0,6 km/h (0 Bft) O-NO 67 8,3 C 19,0 C 2,5 km/h (1 Bft)
25.05.2019 13:06 19,0 C 22,2 C 14,2 C 50 % 1014,9 hPa 0,0 l/m 0,6 km/h (0 Bft) O-NO 67 8,3 C 19,0 C 2,5 km/h (1 Bft)
25.05.2019 13:04 18,9 C 21,7 C 14,2 C 50 % 1014,9 hPa 0,0 l/m 0,8 km/h (0 Bft) SO 135 8,2 C 18,9 C 0,0 km/h (0 Bft)
25.05.2019 13:02 18,8 C 21,7 C 14,2 C 50 % 1014,9 hPa 0,0 l/m 0,6 km/h (0 Bft) SO 135 8,2 C 18,8 C 0,0 km/h (0 Bft)
25.05.2019 13:00 18,8 C 21,6 C 14,2 C 50 % 1014,9 hPa 0,0 l/m 0,6 km/h (0 Bft) S-SW 202 8,2 C 18,8 C 2,1 km/h (1 Bft)
25.05.2019 12:58 18,9 C 21,4 C 14,1 C 50 % 1014,9 hPa 0,0 l/m 0,8 km/h (0 Bft) SO 135 8,2 C 18,9 C 0,0 km/h (0 Bft)
25.05.2019 12:56 18,8 C 21,5 C 14,1 C 50 % 1014,9 hPa 0,0 l/m 1,4 km/h (1 Bft) S-SW 202 8,2 C 18,8 C 0,0 km/h (0 Bft)
25.05.2019 12:54 18,8 C 21,5 C 14,1 C 51 % 1014,9 hPa 0,0 l/m 2,1 km/h (1 Bft) S-SW 202 8,4 C 18,8 C 2,3 km/h (1 Bft)
25.05.2019 12:52 18,8 C 21,4 C 14,1 C 50 % 1014,9 hPa 0,0 l/m 1,9 km/h (1 Bft) W-NW 292 8,2 C 18,8 C 0,0 km/h (0 Bft)
25.05.2019 12:50 18,8 C 21,6 C 14,1 C 50 % 1014,9 hPa 0,0 l/m 2,1 km/h (1 Bft) S-SO 157 8,2 C 18,8 C 2,3 km/h (1 Bft)
25.05.2019 12:48 18,8 C 21,6 C 14,1 C 50 % 1014,9 hPa 0,0 l/m 1,3 km/h (1 Bft) SO 135 8,2 C 18,8 C 5,6 km/h (1 Bft)
25.05.2019 12:46 18,8 C 21,6 C 14,1 C 50 % 1014,8 hPa 0,0 l/m 1,3 km/h (1 Bft) SO 135 8,2 C 18,8 C 5,6 km/h (1 Bft)
25.05.2019 12:44 18,9 C 21,8 C 14,1 C 50 % 1014,8 hPa 0,0 l/m 0,5 km/h (0 Bft) S-SW 202 8,2 C 18,9 C 5,2 km/h (1 Bft)
25.05.2019 12:42 18,9 C 21,8 C 14,1 C 50 % 1014,8 hPa 0,0 l/m 0,2 km/h (0 Bft) S 180 8,2 C 18,9 C 0,0 km/h (0 Bft)
25.05.2019 12:40 18,9 C 21,6 C 14,1 C 50 % 1014,8 hPa 0,0 l/m 0,2 km/h (0 Bft) O 90 8,2 C 18,9 C 0,0 km/h (0 Bft)
25.05.2019 12:38 18,8 C 21,4 C 14,0 C 50 % 1014,8 hPa 0,0 l/m 0,2 km/h (0 Bft) NO 45 8,2 C 18,8 C 0,0 km/h (0 Bft)
25.05.2019 12:36 18,8 C 21,0 C 13,9 C 50 % 1014,8 hPa 0,0 l/m 0,3 km/h (0 Bft) S-SW 202 8,2 C 18,8 C 0,0 km/h (0 Bft)
25.05.2019 12:34 18,8 C 21,1 C 13,9 C 51 % 1014,8 hPa 0,0 l/m 0,6 km/h (0 Bft) SW 225 8,4 C 18,8 C 0,0 km/h (0 Bft)
25.05.2019 12:32 18,8 C 21,1 C 13,9 C 50 % 1014,8 hPa 0,0 l/m 1,0 km/h (0 Bft) S-SW 202 8,2 C 18,8 C 0,0 km/h (0 Bft)
25.05.2019 12:30 18,7 C 21,0 C 13,9 C 50 % 1014,8 hPa 0,0 l/m 1,4 km/h (1 Bft) W 270 8,1 C 18,7 C 0,0 km/h (0 Bft)
25.05.2019 12:28 18,8 C 21,1 C 13,9 C 50 % 1014,8 hPa 0,0 l/m 3,2 km/h (1 Bft) S-SW 202 8,2 C 18,8 C 0,0 km/h (0 Bft)
25.05.2019 12:26 18,8 C 21,0 C 13,9 C 50 % 1014,8 hPa 0,0 l/m 3,2 km/h (1 Bft) S-SW 202 8,2 C 18,8 C 0,0 km/h (0 Bft)
25.05.2019 12:24 18,9 C 21,1 C 13,9 C 50 % 1014,8 hPa 0,0 l/m 3,5 km/h (1 Bft) SW 225 8,2 C 18,9 C 2,5 km/h (1 Bft)
25.05.2019 12:22 18,9 C 21,5 C 13,9 C 50 % 1014,8 hPa 0,0 l/m 3,4 km/h (1 Bft) S-SW 202 8,2 C 18,9 C 3,5 km/h (1 Bft)
25.05.2019 12:20 19,0 C 22,0 C 13,9 C 50 % 1014,8 hPa 0,0 l/m 3,2 km/h (1 Bft) SW 225 8,3 C 19,0 C 5,4 km/h (1 Bft)
25.05.2019 12:18 19,1 C 23,0 C 13,9 C 50 % 1014,8 hPa 0,0 l/m 2,9 km/h (1 Bft) S 180 8,4 C 19,1 C 4,1 km/h (1 Bft)
25.05.2019 12:16 19,4 C 23,8 C 13,9 C 51 % 1014,8 hPa 0,0 l/m 2,6 km/h (1 Bft) S-SW 202 9,0 C 19,4 C 9,1 km/h (2 Bft)
25.05.2019 12:14 19,6 C 24,6 C 13,8 C 50 % 1014,8 hPa 0,0 l/m 2,3 km/h (1 Bft) SW 225 8,9 C 19,6 C 2,5 km/h (1 Bft)
25.05.2019 12:12 18,9 C 24,3 C 13,8 C 50 % 1014,8 hPa 0,0 l/m 1,8 km/h (1 Bft) S-SW 202 8,2 C 18,9 C 0,0 km/h (0 Bft)
25.05.2019 12:10 18,9 C 24,3 C 13,8 C 50 % 1014,8 hPa 0,0 l/m 1,8 km/h (1 Bft) S-SW 202 8,2 C 18,9 C 0,0 km/h (0 Bft)
25.05.2019 12:08 18,9 C 24,3 C 13,8 C 50 % 1014,8 hPa 0,0 l/m 1,8 km/h (1 Bft) S-SW 202 8,2 C 18,9 C 0,0 km/h (0 Bft)
25.05.2019 12:06 18,9 C 24,3 C 13,8 C 50 % 1015,0 hPa 0,0 l/m 1,8 km/h (1 Bft) S-SW 202 8,2 C 18,9 C 0,0 km/h (0 Bft)
25.05.2019 12:04 18,9 C 24,3 C 13,8 C 50 % 1015,0 hPa 0,0 l/m 1,8 km/h (1 Bft) S-SW 202 8,2 C 18,9 C 0,0 km/h (0 Bft)
25.05.2019 12:02 18,9 C 24,0 C 13,8 C 50 % 1015,0 hPa 0,0 l/m 1,9 km/h (1 Bft) S-SW 202 8,2 C 18,9 C 2,5 km/h (1 Bft)
25.05.2019 12:00 18,9 C 23,0 C 13,7 C 51 % 1015,0 hPa 0,0 l/m 2,4 km/h (1 Bft) SW 225 8,5 C 18,9 C 2,1 km/h (1 Bft)
25.05.2019 11:58 18,8 C 22,6 C 13,7 C 50 % 1015,0 hPa 0,0 l/m 2,9 km/h (1 Bft) SW 225 8,2 C 18,8 C 2,1 km/h (1 Bft)
25.05.2019 11:56 18,7 C 22,3 C 13,7 C 52 % 1015,0 hPa 0,0 l/m 2,7 km/h (1 Bft) S-SO 157 8,6 C 18,7 C 2,7 km/h (1 Bft)
25.05.2019 11:54 18,7 C 22,1 C 13,7 C 52 % 1015,0 hPa 0,0 l/m 2,3 km/h (1 Bft) SW 225 8,6 C 18,7 C 4,6 km/h (1 Bft)
25.05.2019 11:52 18,6 C 22,2 C 13,7 C 52 % 1015,0 hPa 0,0 l/m 1,9 km/h (1 Bft) O 90 8,5 C 18,6 C 4,2 km/h (1 Bft)
25.05.2019 11:50 18,7 C 22,3 C 13,7 C 53 % 1015,0 hPa 0,0 l/m 1,8 km/h (1 Bft) W-NW 292 8,9 C 18,7 C 4,2 km/h (1 Bft)
25.05.2019 11:48 18,8 C 22,4 C 13,7 C 52 % 1015,0 hPa 0,0 l/m 1,6 km/h (1 Bft) S-SW 202 8,7 C 18,8 C 0,0 km/h (0 Bft)
25.05.2019 11:46 18,8 C 22,5 C 13,7 C 52 % 1014,9 hPa 0,0 l/m 1,6 km/h (1 Bft) S-SW 202 8,7 C 18,8 C 0,0 km/h (0 Bft)
25.05.2019 11:44 18,7 C 22,4 C 13,7 C 51 % 1014,9 hPa 0,0 l/m 2,1 km/h (1 Bft) W-NW 292 8,4 C 18,7 C 0,0 km/h (0 Bft)
25.05.2019 11:42 18,7 C 22,1 C 13,7 C 51 % 1014,9 hPa 0,0 l/m 2,3 km/h (1 Bft) O-SO 112 8,4 C 18,7 C 2,5 km/h (1 Bft)
25.05.2019 11:40 18,6 C 22,0 C 13,7 C 51 % 1014,9 hPa 0,0 l/m 2,3 km/h (1 Bft) O-SO 112 8,3 C 18,6 C 4,1 km/h (1 Bft)
25.05.2019 11:38 18,7 C 22,1 C 13,6 C 51 % 1014,9 hPa 0,0 l/m 1,8 km/h (1 Bft) O-NO 67 8,4 C 18,7 C 3,9 km/h (1 Bft)
25.05.2019 11:36 18,8 C 22,5 C 13,6 C 51 % 1014,9 hPa 0,0 l/m 1,4 km/h (1 Bft) O 90 8,4 C 18,8 C 3,5 km/h (1 Bft)
25.05.2019 11:34 18,9 C 22,6 C 13,6 C 51 % 1014,9 hPa 0,0 l/m 1,0 km/h (0 Bft) NO 45 8,5 C 18,9 C 3,1 km/h (1 Bft)
25.05.2019 11:32 18,8 C 22,3 C 13,6 C 51 % 1014,9 hPa 0,0 l/m 1,3 km/h (1 Bft) O 90 8,4 C 18,8 C 2,7 km/h (1 Bft)
25.05.2019 11:30 19,1 C 22,1 C 13,6 C 51 % 1014,9 hPa 0,0 l/m 1,0 km/h (0 Bft) O-NO 67 8,7 C 19,1 C 3,9 km/h (1 Bft)
25.05.2019 11:28 19,4 C 22,6 C 13,6 C 51 % 1014,9 hPa 0,0 l/m 0,8 km/h (0 Bft) W-SW 247 9,0 C 19,4 C 0,0 km/h (0 Bft)
25.05.2019 11:26 19,4 C 23,1 C 13,6 C 51 % 1014,8 hPa 0,0 l/m 0,8 km/h (0 Bft) W-SW 247 9,0 C 19,4 C 0,0 km/h (0 Bft)
25.05.2019 11:24 19,4 C 23,7 C 13,6 C 52 % 1014,8 hPa 0,0 l/m 1,1 km/h (1 Bft) N 360 9,3 C 19,4 C 3,1 km/h (1 Bft)
25.05.2019 11:22 19,2 C 22,5 C 13,6 C 52 % 1014,8 hPa 0,0 l/m 1,9 km/h (1 Bft) W-NW 292 9,1 C 19,2 C 4,2 km/h (1 Bft)
25.05.2019 11:20 18,7 C 21,4 C 13,5 C 53 % 1014,8 hPa 0,0 l/m 1,8 km/h (1 Bft) O-NO 67 8,9 C 18,7 C 0,0 km/h (0 Bft)
25.05.2019 11:18 18,6 C 20,6 C 13,5 C 53 % 1014,8 hPa 0,0 l/m 2,7 km/h (1 Bft) N-NO 22 8,8 C 18,6 C 2,3 km/h (1 Bft)
25.05.2019 11:16 18,5 C 20,7 C 13,5 C 53 % 1014,8 hPa 0,0 l/m 3,9 km/h (1 Bft) NO 45 8,7 C 18,5 C 0,0 km/h (0 Bft)
25.05.2019 11:14 18,5 C 21,1 C 13,5 C 53 % 1014,8 hPa 0,0 l/m 4,7 km/h (1 Bft) N-NW 337 8,7 C 18,5 C 6,2 km/h (2 Bft)
25.05.2019 11:12 18,6 C 21,5 C 13,5 C 53 % 1014,8 hPa 0,0 l/m 4,2 km/h (1 Bft) W-NW 292 8,8 C 18,6 C 7,5 km/h (2 Bft)
25.05.2019 11:10 18,6 C 21,7 C 13,5 C 53 % 1014,8 hPa 0,0 l/m 3,5 km/h (1 Bft) NW 315 8,8 C 18,6 C 0,0 km/h (0 Bft)
25.05.2019 11:08 18,8 C 21,9 C 13,5 C 53 % 1014,8 hPa 0,0 l/m 1,8 km/h (1 Bft) NW 315 9,0 C 18,8 C 5,4 km/h (1 Bft)
25.05.2019 11:06 18,8 C 22,3 C 13,5 C 53 % 1014,7 hPa 0,0 l/m 1,8 km/h (1 Bft) NW 315 9,0 C 18,8 C 5,4 km/h (1 Bft)
25.05.2019 11:04 18,7 C 22,3 C 13,5 C 54 % 1014,7 hPa 0,0 l/m 1,4 km/h (1 Bft) W-NW 292 9,2 C 18,7 C 10,0 km/h (2 Bft)
25.05.2019 11:02 18,6 C 21,7 C 13,4 C 53 % 1014,7 hPa 0,0 l/m 1,6 km/h (1 Bft) N 360 8,8 C 18,6 C 2,3 km/h (1 Bft)
25.05.2019 11:00 18,6 C 21,6 C 13,4 C 53 % 1014,7 hPa 0,0 l/m 2,7 km/h (1 Bft) W-SW 247 8,8 C 18,6 C 2,1 km/h (1 Bft)
25.05.2019 10:58 18,5 C 21,7 C 13,4 C 52 % 1014,7 hPa 0,0 l/m 4,0 km/h (1 Bft) O-SO 112 8,5 C 18,5 C 0,0 km/h (0 Bft)
25.05.2019 10:56 18,6 C 21,7 C 13,4 C 52 % 1014,7 hPa 0,0 l/m 4,7 km/h (1 Bft) N-NO 22 8,5 C 18,6 C 0,0 km/h (0 Bft)
25.05.2019 10:54 18,4 C 21,5 C 13,4 C 53 % 1014,7 hPa 0,0 l/m 5,3 km/h (1 Bft) W-SW 247 8,6 C 18,4 C 14,3 km/h (3 Bft)
25.05.2019 10:52 18,4 C 21,5 C 13,4 C 53 % 1014,7 hPa 0,0 l/m 5,1 km/h (1 Bft) W 270 8,6 C 18,4 C 8,9 km/h (2 Bft)
25.05.2019 10:50 18,5 C 21,3 C 13,4 C 53 % 1014,7 hPa 0,0 l/m 5,0 km/h (1 Bft) W-SW 247 8,7 C 18,5 C 10,6 km/h (2 Bft)
25.05.2019 10:48 18,8 C 21,7 C 13,4 C 52 % 1014,7 hPa 0,0 l/m 4,7 km/h (1 Bft) O 90 8,7 C 18,8 C 5,4 km/h (1 Bft)
25.05.2019 10:46 18,8 C 22,0 C 13,4 C 52 % 1014,9 hPa 0,0 l/m 4,7 km/h (1 Bft) O 90 8,7 C 18,8 C 5,4 km/h (1 Bft)
25.05.2019 10:44 18,9 C 22,4 C 13,4 C 52 % 1014,9 hPa 0,0 l/m 4,7 km/h (1 Bft) O-NO 67 8,8 C 18,9 C 4,4 km/h (1 Bft)
25.05.2019 10:42 19,1 C 22,8 C 13,3 C 51 % 1014,9 hPa 0,0 l/m 5,5 km/h (1 Bft) S 180 8,7 C 19,1 C 6,6 km/h (2 Bft)
25.05.2019 10:40 19,2 C 23,7 C 13,3 C 52 % 1014,9 hPa 0,0 l/m 5,6 km/h (1 Bft) SO 135 9,1 C 19,2 C 6,6 km/h (2 Bft)
25.05.2019 10:38 19,1 C 24,0 C 13,3 C 52 % 1014,9 hPa 0,0 l/m 6,0 km/h (2 Bft) O-SO 112 9,0 C 19,1 C 6,0 km/h (2 Bft)
25.05.2019 10:36 19,2 C 24,7 C 13,3 C 52 % 1014,9 hPa 0,0 l/m 6,3 km/h (2 Bft) SO 135 9,1 C 19,2 C 8,5 km/h (2 Bft)
25.05.2019 10:34 19,5 C 26,1 C 13,3 C 52 % 1014,9 hPa 0,0 l/m 6,1 km/h (2 Bft) S-SO 157 9,4 C 19,5 C 13,7 km/h (3 Bft)
25.05.2019 10:32 19,9 C 27,1 C 13,3 C 52 % 1014,9 hPa 0,0 l/m 6,3 km/h (2 Bft) S-SO 157 9,7 C 19,9 C 10,0 km/h (2 Bft)
25.05.2019 10:30 19,8 C 27,0 C 13,3 C 53 % 1014,9 hPa 0,0 l/m 5,8 km/h (2 Bft) SO 135 9,9 C 19,8 C 10,8 km/h (2 Bft)
25.05.2019 10:28 19,3 C 26,7 C 13,3 C 53 % 1014,9 hPa 0,0 l/m 4,7 km/h (1 Bft) S-SO 157 9,5 C 19,3 C 7,7 km/h (2 Bft)
25.05.2019 10:26 19,3 C 26,6 C 13,1 C 53 % 1014,6 hPa 0,0 l/m 4,7 km/h (1 Bft) S-SO 157 9,5 C 19,3 C 7,7 km/h (2 Bft)
25.05.2019 10:24 19,6 C 25,9 C 13,1 C 53 % 1014,6 hPa 0,0 l/m 4,7 km/h (1 Bft) S-SO 157 9,8 C 19,6 C 8,9 km/h (2 Bft)
25.05.2019 10:22 19,6 C 24,8 C 13,1 C 54 % 1014,6 hPa 0,0 l/m 4,7 km/h (1 Bft) S-SW 202 10,0 C 19,6 C 8,3 km/h (2 Bft)
25.05.2019 10:20 19,6 C 24,3 C 13,1 C 54 % 1014,6 hPa 0,0 l/m 4,7 km/h (1 Bft) S-SW 202 10,0 C 19,6 C 6,2 km/h (2 Bft)
25.05.2019 10:18 19,6 C 24,5 C 13,1 C 54 % 1014,6 hPa 0,0 l/m 4,8 km/h (1 Bft) S-SW 202 10,0 C 19,6 C 7,0 km/h (2 Bft)
25.05.2019 10:16 19,5 C 24,6 C 13,1 C 54 % 1014,6 hPa 0,0 l/m 5,8 km/h (2 Bft) W 270 9,9 C 19,5 C 6,4 km/h (2 Bft)
25.05.2019 10:14 19,4 C 24,6 C 13,1 C 55 % 1014,6 hPa 0,0 l/m 4,8 km/h (1 Bft) SW 225 10,1 C 19,4 C 7,7 km/h (2 Bft)
25.05.2019 10:12 19,4 C 24,4 C 13,1 C 54 % 1014,6 hPa 0,0 l/m 4,3 km/h (1 Bft) W 270 9,8 C 19,4 C 8,9 km/h (2 Bft)
25.05.2019 10:10 19,2 C 23,7 C 13,1 C 55 % 1014,6 hPa 0,0 l/m 4,7 km/h (1 Bft) SW 225 9,9 C 19,2 C 8,7 km/h (2 Bft)
25.05.2019 10:08 18,9 C 23,5 C 13,1 C 54 % 1014,6 hPa 0,0 l/m 3,2 km/h (1 Bft) W 270 9,4 C 18,9 C 7,7 km/h (2 Bft)
25.05.2019 10:06 18,9 C 22,7 C 13,1 C 54 % 1014,9 hPa 0,0 l/m 3,2 km/h (1 Bft) W 270 9,4 C 18,9 C 7,7 km/h (2 Bft)
25.05.2019 10:04 18,8 C 23,2 C 13,1 C 54 % 1014,9 hPa 0,0 l/m 3,2 km/h (1 Bft) S 180 9,3 C 18,8 C 12,6 km/h (3 Bft)
25.05.2019 10:02 19,2 C 24,1 C 13,1 C 56 % 1014,9 hPa 0,0 l/m 3,4 km/h (1 Bft) W 270 10,2 C 19,2 C 8,1 km/h (2 Bft)
25.05.2019 10:00 19,4 C 23,8 C 13,1 C 56 % 1014,9 hPa 0,0 l/m 2,6 km/h (1 Bft) W-NW 292 10,4 C 19,4 C 9,1 km/h (2 Bft)
25.05.2019 09:58 19,5 C 24,0 C 13,1 C 55 % 1014,9 hPa 0,0 l/m 1,4 km/h (1 Bft) SW 225 10,2 C 19,5 C 2,5 km/h (1 Bft)
25.05.2019 09:56 19,2 C 24,3 C 13,0 C 55 % 1014,9 hPa 0,0 l/m 1,6 km/h (1 Bft) NW 315 9,9 C 19,2 C 0,0 km/h (0 Bft)
25.05.2019 09:54 19,1 C 24,1 C 13,0 C 55 % 1014,9 hPa 0,0 l/m 1,6 km/h (1 Bft) SO 135 9,8 C 19,1 C 3,5 km/h (1 Bft)
25.05.2019 09:52 19,0 C 23,8 C 13,0 C 56 % 1014,9 hPa 0,0 l/m 1,4 km/h (1 Bft) SW 225 10,0 C 19,0 C 3,9 km/h (1 Bft)
25.05.2019 09:50 18,9 C 23,9 C 13,0 C 55 % 1014,9 hPa 0,0 l/m 1,8 km/h (1 Bft) O-NO 67 9,7 C 18,9 C 6,8 km/h (2 Bft)
25.05.2019 09:48 19,1 C 23,9 C 13,0 C 58 % 1014,9 hPa 0,0 l/m 1,9 km/h (1 Bft) O-NO 67 10,6 C 19,1 C 3,5 km/h (1 Bft)
25.05.2019 09:46 19,1 C 23,9 C 13,0 C 58 % 1014,8 hPa 0,0 l/m 1,9 km/h (1 Bft) O-NO 67 10,6 C 19,1 C 3,5 km/h (1 Bft)
25.05.2019 09:44 18,7 C 24,0 C 12,9 C 57 % 1014,8 hPa 0,0 l/m 1,4 km/h (1 Bft) W 270 10,0 C 18,7 C 9,5 km/h (2 Bft)
25.05.2019 09:42 18,6 C 24,1 C 12,9 C 57 % 1014,8 hPa 0,0 l/m 1,3 km/h (1 Bft) S-SW 202 9,9 C 18,6 C 0,0 km/h (0 Bft)
25.05.2019 09:40 18,4 C 24,0 C 12,9 C 56 % 1014,8 hPa 0,0 l/m 1,0 km/h (0 Bft) O-NO 67 9,5 C 18,4 C 9,5 km/h (2 Bft)
25.05.2019 09:38 18,4 C 23,9 C 12,9 C 57 % 1014,8 hPa 0,0 l/m 0,3 km/h (0 Bft) O-NO 67 9,7 C 18,4 C 2,3 km/h (1 Bft)
25.05.2019 09:36 18,5 C 23,7 C 12,9 C 58 % 1014,8 hPa 0,0 l/m 0,5 km/h (0 Bft) N-NO 22 10,1 C 18,5 C 3,5 km/h (1 Bft)
25.05.2019 09:34 18,3 C 23,0 C 12,9 C 58 % 1014,8 hPa 0,0 l/m 0,5 km/h (0 Bft) O-NO 67 9,9 C 18,3 C 2,5 km/h (1 Bft)
25.05.2019 09:32 18,0 C 21,7 C 12,8 C 58 % 1014,8 hPa 0,0 l/m 0,5 km/h (0 Bft) N-NW 337 9,6 C 18,0 C 0,0 km/h (0 Bft)
25.05.2019 09:30 18,0 C 20,6 C 12,8 C 59 % 1014,8 hPa 0,0 l/m 0,8 km/h (0 Bft) O-SO 112 9,9 C 18,0 C 0,0 km/h (0 Bft)
25.05.2019 09:28 17,7 C 20,4 C 12,8 C 59 % 1014,8 hPa 0,0 l/m 0,8 km/h (0 Bft) N-NW 337 9,6 C 17,7 C 3,5 km/h (1 Bft)
25.05.2019 09:26 17,7 C 20,7 C 12,8 C 59 % 1014,9 hPa 0,0 l/m 0,8 km/h (0 Bft) N-NW 337 9,6 C 17,7 C 3,5 km/h (1 Bft)
25.05.2019 09:24 17,8 C 21,5 C 12,8 C 60 % 1014,9 hPa 0,0 l/m 0,6 km/h (0 Bft) N 360 9,9 C 17,8 C 0,0 km/h (0 Bft)
25.05.2019 09:22 17,7 C 21,8 C 12,8 C 61 % 1014,9 hPa 0,0 l/m 0,6 km/h (0 Bft) O-NO 67 10,1 C 17,7 C 2,1 km/h (1 Bft)
25.05.2019 09:20 17,8 C 22,0 C 12,8 C 62 % 1014,9 hPa 0,0 l/m 0,3 km/h (0 Bft) O-NO 67 10,4 C 17,8 C 3,5 km/h (1 Bft)
25.05.2019 09:18 18,0 C 22,8 C 12,8 C 62 % 1014,9 hPa 0,0 l/m 0,2 km/h (0 Bft) S-SW 202 10,6 C 18,0 C 2,7 km/h (1 Bft)
25.05.2019 09:16 18,1 C 23,6 C 12,8 C 63 % 1014,9 hPa 0,0 l/m 0,2 km/h (0 Bft) NO 45 10,9 C 18,1 C 0,0 km/h (0 Bft)
25.05.2019 09:14 18,2 C 23,7 C 12,7 C 64 % 1014,9 hPa 0,0 l/m 0,0 km/h (0 Bft) O 90 11,3 C 18,2 C 0,0 km/h (0 Bft)
25.05.2019 09:12 18,3 C 23,9 C 12,7 C 64 % 1014,9 hPa 0,0 l/m 0,0 km/h (0 Bft) SO 135 11,4 C 18,3 C 0,0 km/h (0 Bft)
25.05.2019 09:10 18,0 C 23,5 C 12,7 C 64 % 1014,9 hPa 0,0 l/m 0,0 km/h (0 Bft) N-NW 337 11,1 C 18,0 C 0,0 km/h (0 Bft)
25.05.2019 09:08 17,4 C 23,2 C 12,7 C 66 % 1014,9 hPa 0,0 l/m 0,0 km/h (0 Bft) NW 315 11,0 C 17,4 C 0,0 km/h (0 Bft)
25.05.2019 09:06 17,4 C 22,7 C 12,7 C 66 % 1014,7 hPa 0,0 l/m 0,0 km/h (0 Bft) NW 315 11,0 C 17,4 C 0,0 km/h (0 Bft)
25.05.2019 09:04 17,3 C 22,8 C 12,7 C 67 % 1014,7 hPa 0,0 l/m 0,0 km/h (0 Bft) N-NO 22 11,1 C 17,3 C 0,0 km/h (0 Bft)
25.05.2019 09:02 17,2 C 22,5 C 12,7 C 68 % 1014,7 hPa 0,0 l/m 0,0 km/h (0 Bft) O 90 11,2 C 17,2 C 0,0 km/h (0 Bft)
25.05.2019 09:00 17,0 C 22,4 C 12,6 C 68 % 1014,7 hPa 0,0 l/m 0,0 km/h (0 Bft) O-NO 67 11,0 C 17,0 C 0,0 km/h (0 Bft)
25.05.2019 08:58 16,8 C 22,0 C 12,6 C 69 % 1014,7 hPa 0,0 l/m 0,0 km/h (0 Bft) O-NO 67 11,1 C 16,8 C 0,0 km/h (0 Bft)
25.05.2019 08:56 16,7 C 21,8 C 12,6 C 68 % 1014,7 hPa 0,0 l/m 0,0 km/h (0 Bft) W-SW 247 10,8 C 16,7 C 0,0 km/h (0 Bft)
25.05.2019 08:54 16,5 C 21,6 C 12,6 C 69 % 1014,7 hPa 0,0 l/m 0,0 km/h (0 Bft) N-NO 22 10,8 C 16,5 C 0,0 km/h (0 Bft)
25.05.2019 08:52 16,5 C 21,6 C 12,6 C 69 % 1014,7 hPa 0,0 l/m 0,0 km/h (0 Bft) NO 45 10,8 C 16,5 C 0,0 km/h (0 Bft)
25.05.2019 08:50 16,4 C 21,2 C 12,6 C 69 % 1014,7 hPa 0,0 l/m 0,0 km/h (0 Bft) O-SO 112 10,7 C 16,4 C 0,0 km/h (0 Bft)
25.05.2019 08:48 16,3 C 20,6 C 12,7 C 69 % 1014,7 hPa 0,0 l/m 0,0 km/h (0 Bft) O-NO 67 10,6 C 16,3 C 0,0 km/h (0 Bft)
25.05.2019 08:46 16,3 C 20,2 C 12,7 C 69 % 1014,5 hPa 0,0 l/m 0,0 km/h (0 Bft) O-NO 67 10,6 C 16,3 C 0,0 km/h (0 Bft)
25.05.2019 08:44 16,1 C 19,9 C 12,7 C 69 % 1014,5 hPa 0,0 l/m 0,0 km/h (0 Bft) N-NW 337 10,4 C 16,1 C 0,0 km/h (0 Bft)
25.05.2019 08:42 15,9 C 19,7 C 12,7 C 70 % 1014,5 hPa 0,0 l/m 0,0 km/h (0 Bft) N-NO 22 10,4 C 15,9 C 0,0 km/h (0 Bft)
25.05.2019 08:40 15,9 C 19,4 C 12,6 C 71 % 1014,5 hPa 0,0 l/m 0,0 km/h (0 Bft) O 90 10,6 C 15,9 C 0,0 km/h (0 Bft)
25.05.2019 08:38 15,8 C 19,2 C 12,6 C 71 % 1014,5 hPa 0,0 l/m 0,0 km/h (0 Bft) S-SO 157 10,6 C 15,8 C 0,0 km/h (0 Bft)
25.05.2019 08:36 15,6 C 18,8 C 12,6 C 71 % 1014,5 hPa 0,0 l/m 0,0 km/h (0 Bft) SW 225 10,4 C 15,6 C 0,0 km/h (0 Bft)
25.05.2019 08:34 15,4 C 18,8 C 12,6 C 72 % 1014,5 hPa 0,0 l/m 0,0 km/h (0 Bft) N 360 10,4 C 15,4 C 0,0 km/h (0 Bft)
25.05.2019 08:32 15,2 C 18,7 C 12,6 C 72 % 1014,5 hPa 0,0 l/m 0,0 km/h (0 Bft) NW 315 10,2 C 15,2 C 0,0 km/h (0 Bft)
25.05.2019 08:30 15,0 C 18,3 C 12,6 C 72 % 1014,5 hPa 0,0 l/m 0,0 km/h (0 Bft) O-NO 67 10,0 C 15,0 C 0,0 km/h (0 Bft)
25.05.2019 08:28 14,7 C 17,9 C 12,6 C 73 % 1014,5 hPa 0,0 l/m 0,0 km/h (0 Bft) O-NO 67 9,9 C 14,7 C 0,0 km/h (0 Bft)
25.05.2019 08:26 14,7 C 17,6 C 12,6 C 73 % 1014,5 hPa 0,0 l/m 0,0 km/h (0 Bft) O-NO 67 9,9 C 14,7 C 0,0 km/h (0 Bft)
25.05.2019 08:24 14,5 C 17,1 C 12,6 C 73 % 1014,5 hPa 0,0 l/m 0,0 km/h (0 Bft) O-NO 67 9,7 C 14,5 C 0,0 km/h (0 Bft)
25.05.2019 08:22 14,2 C 15,8 C 12,6 C 73 % 1014,5 hPa 0,0 l/m 0,0 km/h (0 Bft) N-NO 22 9,4 C 14,2 C 0,0 km/h (0 Bft)
25.05.2019 08:20 13,9 C 14,9 C 12,6 C 73 % 1014,5 hPa 0,0 l/m 0,0 km/h (0 Bft) NO 45 9,1 C 13,9 C 0,0 km/h (0 Bft)
25.05.2019 08:18 13,8 C 14,1 C 12,6 C 73 % 1014,5 hPa 0,0 l/m 0,0 km/h (0 Bft) N-NW 337 9,0 C 13,8 C 0,0 km/h (0 Bft)
25.05.2019 08:16 13,7 C 14,4 C 12,6 C 74 % 1014,5 hPa 0,0 l/m 0,3 km/h (0 Bft) N-NW 337 9,2 C 13,7 C 0,0 km/h (0 Bft)
25.05.2019 08:14 13,8 C 14,7 C 12,6 C 74 % 1014,5 hPa 0,0 l/m 0,6 km/h (0 Bft) O-NO 67 9,2 C 13,8 C 0,0 km/h (0 Bft)
25.05.2019 08:12 13,8 C 15,1 C 12,6 C 74 % 1014,5 hPa 0,0 l/m 0,8 km/h (0 Bft) O 90 9,2 C 13,8 C 0,0 km/h (0 Bft)
25.05.2019 08:10 13,8 C 15,4 C 12,6 C 74 % 1014,5 hPa 0,0 l/m 0,8 km/h (0 Bft) O-NO 67 9,2 C 13,8 C 0,0 km/h (0 Bft)
25.05.2019 08:08 13,8 C 15,6 C 12,5 C 75 % 1014,5 hPa 0,0 l/m 1,3 km/h (1 Bft) O-NO 67 9,4 C 13,8 C 2,3 km/h (1 Bft)
25.05.2019 08:06 13,8 C 15,9 C 12,5 C 75 % 1014,6 hPa 0,0 l/m 1,3 km/h (1 Bft) O-NO 67 9,4 C 13,8 C 2,3 km/h (1 Bft)
25.05.2019 08:04 13,7 C 16,3 C 12,5 C 75 % 1014,6 hPa 0,0 l/m 1,0 km/h (0 Bft) O-NO 67 9,3 C 13,7 C 3,3 km/h (1 Bft)
25.05.2019 08:02 13,7 C 16,3 C 12,5 C 75 % 1014,6 hPa 0,0 l/m 1,1 km/h (1 Bft) O-NO 67 9,3 C 13,7 C 2,1 km/h (1 Bft)
25.05.2019 08:00 13,5 C 16,0 C 12,5 C 75 % 1014,6 hPa 0,0 l/m 1,6 km/h (1 Bft) O-NO 67 9,2 C 13,5 C 0,0 km/h (0 Bft)
25.05.2019 07:58 13,5 C 15,9 C 12,5 C 75 % 1014,6 hPa 0,0 l/m 2,1 km/h (1 Bft) O-NO 67 9,2 C 13,5 C 1,9 km/h (1 Bft)
25.05.2019 07:56 13,4 C 15,8 C 12,5 C 76 % 1014,6 hPa 0,0 l/m 2,3 km/h (1 Bft) O-NO 67 9,3 C 13,4 C 2,5 km/h (1 Bft)
25.05.2019 07:54 13,3 C 15,5 C 12,5 C 76 % 1014,6 hPa 0,0 l/m 2,3 km/h (1 Bft) O-NO 67 9,2 C 13,3 C 3,5 km/h (1 Bft)
25.05.2019 07:52 13,3 C 15,1 C 12,5 C 76 % 1014,6 hPa 0,0 l/m 2,4 km/h (1 Bft) O 90 9,2 C 13,3 C 4,1 km/h (1 Bft)
25.05.2019 07:50 13,3 C 14,9 C 12,5 C 76 % 1014,6 hPa 0,0 l/m 2,1 km/h (1 Bft) O 90 9,2 C 13,3 C 5,0 km/h (1 Bft)
25.05.2019 07:48 13,0 C 14,6 C 12,5 C 77 % 1014,6 hPa 0,0 l/m 1,0 km/h (0 Bft) O-NO 67 9,1 C 13,0 C 5,8 km/h (2 Bft)
25.05.2019 07:46 13,0 C 14,4 C 12,5 C 77 % 1014,5 hPa 0,0 l/m 1,0 km/h (0 Bft) O-NO 67 9,1 C 13,0 C 5,8 km/h (2 Bft)
25.05.2019 07:44 13,0 C 14,4 C 12,5 C 77 % 1014,5 hPa 0,0 l/m 0,6 km/h (0 Bft) NO 45 9,1 C 13,0 C 0,0 km/h (0 Bft)
25.05.2019 07:42 13,0 C 14,4 C 12,5 C 77 % 1014,5 hPa 0,0 l/m 0,3 km/h (0 Bft) O-SO 112 9,1 C 13,0 C 2,9 km/h (1 Bft)
25.05.2019 07:40 12,9 C 14,6 C 12,5 C 78 % 1014,5 hPa 0,0 l/m 0,0 km/h (0 Bft) NO 45 9,2 C 12,9 C 2,5 km/h (1 Bft)
25.05.2019 07:38 12,8 C 14,9 C 12,5 C 79 % 1014,5 hPa 0,0 l/m 0,0 km/h (0 Bft) O-SO 112 9,2 C 12,8 C 0,0 km/h (0 Bft)
25.05.2019 07:36 12,8 C 15,0 C 12,5 C 79 % 1014,5 hPa 0,0 l/m 0,0 km/h (0 Bft) O-NO 67 9,2 C 12,8 C 0,0 km/h (0 Bft)
25.05.2019 07:34 12,8 C 15,3 C 12,5 C 79 % 1014,5 hPa 0,0 l/m 0,0 km/h (0 Bft) O-SO 112 9,2 C 12,8 C 0,0 km/h (0 Bft)
25.05.2019 07:32 12,8 C 15,4 C 12,5 C 79 % 1014,5 hPa 0,0 l/m 0,0 km/h (0 Bft) O 90 9,2 C 12,8 C 0,0 km/h (0 Bft)
25.05.2019 07:30 12,7 C 15,7 C 12,5 C 80 % 1014,5 hPa 0,0 l/m 0,0 km/h (0 Bft) O-SO 112 9,3 C 12,7 C 0,0 km/h (0 Bft)
25.05.2019 07:28 12,7 C 15,9 C 12,5 C 80 % 1014,5 hPa 0,0 l/m 0,0 km/h (0 Bft) O-NO 67 9,3 C 12,7 C 0,0 km/h (0 Bft)
25.05.2019 07:26 12,7 C 15,4 C 12,5 C 80 % 1014,4 hPa 0,0 l/m 0,0 km/h (0 Bft) O-NO 67 9,3 C 12,7 C 0,0 km/h (0 Bft)
25.05.2019 07:24 12,6 C 15,0 C 12,5 C 81 % 1014,4 hPa 0,0 l/m 0,0 km/h (0 Bft) O 90 9,4 C 12,6 C 0,0 km/h (0 Bft)
25.05.2019 07:22 12,5 C 15,1 C 12,4 C 82 % 1014,4 hPa 0,0 l/m 0,0 km/h (0 Bft) N-NO 22 9,5 C 12,5 C 0,0 km/h (0 Bft)
25.05.2019 07:20 12,4 C 15,1 C 12,4 C 82 % 1014,4 hPa 0,0 l/m 0,0 km/h (0 Bft) O-SO 112 9,4 C 12,4 C 0,0 km/h (0 Bft)
25.05.2019 07:18 12,3 C 15,1 C 12,4 C 82 % 1014,4 hPa 0,0 l/m 0,0 km/h (0 Bft) NO 45 9,3 C 12,3 C 0,0 km/h (0 Bft)
25.05.2019 07:16 12,2 C 14,8 C 12,4 C 82 % 1014,4 hPa 0,0 l/m 0,0 km/h (0 Bft) O-NO 67 9,2 C 12,2 C 0,0 km/h (0 Bft)
25.05.2019 07:14 12,1 C 14,5 C 12,4 C 82 % 1014,4 hPa 0,0 l/m 0,0 km/h (0 Bft) O 90 9,1 C 12,1 C 0,0 km/h (0 Bft)
25.05.2019 07:12 12,0 C 14,1 C 12,5 C 82 % 1014,4 hPa 0,0 l/m 0,0 km/h (0 Bft) O-NO 67 9,0 C 12,0 C 0,0 km/h (0 Bft)
25.05.2019 07:10 12,0 C 13,7 C 12,5 C 82 % 1014,4 hPa 0,0 l/m 0,0 km/h (0 Bft) N 360 9,0 C 12,0 C 0,0 km/h (0 Bft)
25.05.2019 07:08 11,8 C 13,3 C 12,5 C 83 % 1014,4 hPa 0,0 l/m 0,0 km/h (0 Bft) N-NO 22 9,0 C 11,8 C 0,0 km/h (0 Bft)
25.05.2019 07:06 11,8 C 13,2 C 12,5 C 83 % 1014,4 hPa 0,0 l/m 0,0 km/h (0 Bft) N-NO 22 9,0 C 11,8 C 0,0 km/h (0 Bft)
25.05.2019 07:04 11,7 C 13,0 C 12,5 C 83 % 1014,4 hPa 0,0 l/m 0,0 km/h (0 Bft) N-NO 22 8,9 C 11,7 C 0,0 km/h (0 Bft)
25.05.2019 07:02 11,6 C 12,9 C 12,5 C 84 % 1014,4 hPa 0,0 l/m 0,0 km/h (0 Bft) S-SO 157 9,0 C 11,6 C 0,0 km/h (0 Bft)
25.05.2019 07:00 11,5 C 12,9 C 12,5 C 84 % 1014,4 hPa 0,0 l/m 0,0 km/h (0 Bft) O-NO 67 8,9 C 11,5 C 0,0 km/h (0 Bft)
25.05.2019 06:58 11,4 C 13,0 C 12,5 C 84 % 1014,4 hPa 0,0 l/m 0,0 km/h (0 Bft) SO 135 8,8 C 11,4 C 0,0 km/h (0 Bft)
25.05.2019 06:56 11,3 C 13,0 C 12,5 C 84 % 1014,4 hPa 0,0 l/m 0,0 km/h (0 Bft) S-SO 157 8,7 C 11,3 C 0,0 km/h (0 Bft)
25.05.2019 06:54 11,3 C 13,2 C 12,5 C 84 % 1014,4 hPa 0,0 l/m 0,0 km/h (0 Bft) S-SO 157 8,7 C 11,3 C 0,0 km/h (0 Bft)
25.05.2019 06:52 11,1 C 13,2 C 12,5 C 84 % 1014,4 hPa 0,0 l/m 0,0 km/h (0 Bft) NW 315 8,5 C 11,1 C 0,0 km/h (0 Bft)
25.05.2019 06:50 11,0 C 13,2 C 12,5 C 84 % 1014,4 hPa 0,0 l/m 0,0 km/h (0 Bft) SO 135 8,4 C 11,0 C 0,0 km/h (0 Bft)
25.05.2019 06:48 11,0 C 13,0 C 12,5 C 84 % 1014,4 hPa 0,0 l/m 0,0 km/h (0 Bft) O-SO 112 8,4 C 11,0 C 0,0 km/h (0 Bft)
25.05.2019 06:46 11,0 C 12,6 C 12,5 C 84 % 1014,2 hPa 0,0 l/m 0,0 km/h (0 Bft) O-SO 112 8,4 C 11,0 C 0,0 km/h (0 Bft)
25.05.2019 06:44 10,9 C 12,6 C 12,5 C 85 % 1014,2 hPa 0,0 l/m 0,0 km/h (0 Bft) S-SO 157 8,5 C 10,9 C 0,0 km/h (0 Bft)
25.05.2019 06:42 10,8 C 12,5 C 12,5 C 85 % 1014,2 hPa 0,0 l/m 0,5 km/h (0 Bft) S-SO 157 8,4 C 10,8 C 0,0 km/h (0 Bft)
25.05.2019 06:40 10,8 C 12,6 C 12,5 C 84 % 1014,2 hPa 0,0 l/m 0,6 km/h (0 Bft) S-SW 202 8,2 C 10,8 C 0,0 km/h (0 Bft)
25.05.2019 06:38 10,7 C 12,6 C 12,5 C 84 % 1014,2 hPa 0,0 l/m 0,8 km/h (0 Bft) S 180 8,1 C 10,7 C 0,0 km/h (0 Bft)
25.05.2019 06:36 10,7 C 12,6 C 12,5 C 84 % 1014,2 hPa 0,0 l/m 1,3 km/h (1 Bft) S-SW 202 8,1 C 10,7 C 0,0 km/h (0 Bft)
25.05.2019 06:34 10,8 C 12,5 C 12,5 C 84 % 1014,2 hPa 0,0 l/m 1,8 km/h (1 Bft) SO 135 8,2 C 10,8 C 1,9 km/h (1 Bft)
25.05.2019 06:32 10,8 C 12,4 C 12,5 C 84 % 1014,2 hPa 0,0 l/m 1,6 km/h (1 Bft) O-NO 67 8,2 C 10,8 C 2,3 km/h (1 Bft)
25.05.2019 06:30 10,7 C 12,4 C 12,5 C 84 % 1014,2 hPa 0,0 l/m 1,3 km/h (1 Bft) O-NO 67 8,1 C 10,7 C 1,9 km/h (1 Bft)
25.05.2019 06:28 10,5 C 12,2 C 12,5 C 85 % 1014,2 hPa 0,0 l/m 1,0 km/h (0 Bft) O-NO 67 8,1 C 10,5 C 3,7 km/h (1 Bft)
25.05.2019 06:26 10,5 C 12,1 C 12,5 C 85 % 1014,2 hPa 0,0 l/m 1,0 km/h (0 Bft) O-NO 67 8,1 C 10,5 C 3,7 km/h (1 Bft)
25.05.2019 06:24 10,3 C 11,9 C 12,5 C 85 % 1014,2 hPa 0,0 l/m 0,6 km/h (0 Bft) O 90 7,9 C 10,3 C 3,7 km/h (1 Bft)
25.05.2019 06:22 10,2 C 11,8 C 12,5 C 85 % 1014,2 hPa 0,0 l/m 0,3 km/h (0 Bft) O-NO 67 7,8 C 10,2 C 1,9 km/h (1 Bft)
25.05.2019 06:20 10,3 C 11,6 C 12,5 C 85 % 1014,2 hPa 0,0 l/m 0,5 km/h (0 Bft) O-NO 67 7,9 C 10,3 C 0,0 km/h (0 Bft)
25.05.2019 06:18 10,3 C 11,4 C 12,5 C 85 % 1014,2 hPa 0,0 l/m 0,6 km/h (0 Bft) O 90 7,9 C 10,3 C 0,0 km/h (0 Bft)
25.05.2019 06:16 10,3 C 11,2 C 12,5 C 85 % 1014,2 hPa 0,0 l/m 1,1 km/h (1 Bft) SO 135 7,9 C 10,3 C 0,0 km/h (0 Bft)
25.05.2019 06:14 10,1 C 11,1 C 12,5 C 85 % 1014,2 hPa 0,0 l/m 1,4 km/h (1 Bft) O 90 7,7 C 10,1 C 2,1 km/h (1 Bft)
25.05.2019 06:12 9,8 C 10,7 C 12,5 C 85 % 1014,2 hPa 0,0 l/m 0,5 km/h (0 Bft) O-NO 67 7,4 C 9,8 C 3,3 km/h (1 Bft)
25.05.2019 06:10 9,8 C 10,7 C 12,5 C 85 % 1014,2 hPa 0,0 l/m 0,5 km/h (0 Bft) O-NO 67 7,4 C 9,8 C 3,3 km/h (1 Bft)
25.05.2019 06:08 9,8 C 10,7 C 12,5 C 85 % 1014,2 hPa 0,0 l/m 0,5 km/h (0 Bft) O-NO 67 7,4 C 9,8 C 3,3 km/h (1 Bft)
25.05.2019 06:06 9,8 C 10,7 C 12,5 C 85 % 1014,1 hPa 0,0 l/m 0,5 km/h (0 Bft) O-NO 67 7,4 C 9,8 C 3,3 km/h (1 Bft)
25.05.2019 06:04 9,8 C 10,7 C 12,5 C 85 % 1014,1 hPa 0,0 l/m 0,5 km/h (0 Bft) O-NO 67 7,4 C 9,8 C 3,3 km/h (1 Bft)
25.05.2019 06:02 9,6 C 10,6 C 12,5 C 85 % 1014,1 hPa 0,0 l/m 0,3 km/h (0 Bft) O-NO 67 7,2 C 9,6 C 1,9 km/h (1 Bft)
25.05.2019 06:00 9,6 C 10,5 C 12,5 C 85 % 1014,1 hPa 0,0 l/m 0,3 km/h (0 Bft) O-SO 112 7,2 C 9,6 C 0,0 km/h (0 Bft)
25.05.2019 05:58 9,5 C 10,4 C 12,5 C 85 % 1014,1 hPa 0,0 l/m 0,3 km/h (0 Bft) N-NO 22 7,1 C 9,5 C 2,9 km/h (1 Bft)
25.05.2019 05:56 9,5 C 10,4 C 12,5 C 85 % 1014,1 hPa 0,0 l/m 0,2 km/h (0 Bft) O-SO 112 7,1 C 9,5 C 0,0 km/h (0 Bft)
25.05.2019 05:54 9,5 C 10,4 C 12,5 C 85 % 1014,1 hPa 0,0 l/m 0,2 km/h (0 Bft) O-NO 67 7,1 C 9,5 C 2,3 km/h (1 Bft)
25.05.2019 05:52 9,5 C 10,3 C 12,5 C 85 % 1014,1 hPa 0,0 l/m 0,0 km/h (0 Bft) O 90 7,1 C 9,5 C 0,0 km/h (0 Bft)
25.05.2019 05:50 9,4 C 10,3 C 12,5 C 85 % 1014,1 hPa 0,0 l/m 0,0 km/h (0 Bft) O-NO 67 7,0 C 9,4 C 0,0 km/h (0 Bft)
25.05.2019 05:48 9,3 C 10,3 C 12,5 C 85 % 1014,1 hPa 0,0 l/m 0,0 km/h (0 Bft) O 90 6,9 C 9,3 C 0,0 km/h (0 Bft)
25.05.2019 05:46 9,3 C 10,2 C 12,5 C 85 % 1014,4 hPa 0,0 l/m 0,0 km/h (0 Bft) O 90 6,9 C 9,3 C 0,0 km/h (0 Bft)
25.05.2019 05:44 9,3 C 10,2 C 12,5 C 85 % 1014,4 hPa 0,0 l/m 0,0 km/h (0 Bft) O-SO 112 6,9 C 9,3 C 0,0 km/h (0 Bft)
25.05.2019 05:42 9,3 C 10,2 C 12,5 C 85 % 1014,4 hPa 0,0 l/m 0,0 km/h (0 Bft) SO 135 6,9 C 9,3 C 2,1 km/h (1 Bft)
25.05.2019 05:40 9,3 C 10,1 C 12,5 C 85 % 1014,4 hPa 0,0 l/m 0,0 km/h (0 Bft) O-NO 67 6,9 C 9,3 C 0,0 km/h (0 Bft)
25.05.2019 05:38 9,3 C 10,1 C 12,6 C 85 % 1014,4 hPa 0,0 l/m 0,0 km/h (0 Bft) W-NW 292 6,9 C 9,3 C 0,0 km/h (0 Bft)
25.05.2019 05:36 9,3 C 10,0 C 12,6 C 85 % 1014,4 hPa 0,0 l/m 0,0 km/h (0 Bft) SO 135 6,9 C 9,3 C 0,0 km/h (0 Bft)
25.05.2019 05:34 9,3 C 10,0 C 12,6 C 85 % 1014,4 hPa 0,0 l/m 0,0 km/h (0 Bft) N-NO 22 6,9 C 9,3 C 0,0 km/h (0 Bft)
25.05.2019 05:32 9,3 C 10,0 C 12,6 C 84 % 1014,4 hPa 0,0 l/m 0,0 km/h (0 Bft) N-NO 22 6,7 C 9,3 C 0,0 km/h (0 Bft)
25.05.2019 05:30 9,2 C 10,0 C 12,6 C 84 % 1014,4 hPa 0,0 l/m 0,0 km/h (0 Bft) O-NO 67 6,6 C 9,2 C 0,0 km/h (0 Bft)
25.05.2019 05:28 9,2 C 9,9 C 12,6 C 84 % 1014,4 hPa 0,0 l/m 0,0 km/h (0 Bft) S-SO 157 6,6 C 9,2 C 0,0 km/h (0 Bft)
25.05.2019 05:26 9,2 C 9,9 C 12,6 C 84 % 1014,0 hPa 0,0 l/m 0,0 km/h (0 Bft) S-SO 157 6,6 C 9,2 C 0,0 km/h (0 Bft)
25.05.2019 05:24 9,2 C 10,0 C 12,6 C 84 % 1014,0 hPa 0,0 l/m 0,0 km/h (0 Bft) SW 225 6,6 C 9,2 C 0,0 km/h (0 Bft)
25.05.2019 05:22 9,2 C 9,9 C 12,6 C 84 % 1014,0 hPa 0,0 l/m 0,0 km/h (0 Bft) SW 225 6,6 C 9,2 C 0,0 km/h (0 Bft)
25.05.2019 05:20 9,1 C 9,9 C 12,6 C 84 % 1014,0 hPa 0,0 l/m 0,0 km/h (0 Bft) S-SO 157 6,5 C 9,1 C 0,0 km/h (0 Bft)
25.05.2019 05:18 9,2 C 9,8 C 12,6 C 84 % 1014,0 hPa 0,0 l/m 0,0 km/h (0 Bft) S-SO 157 6,6 C 9,2 C 0,0 km/h (0 Bft)
25.05.2019 05:16 9,2 C 9,7 C 12,6 C 84 % 1014,0 hPa 0,0 l/m 0,0 km/h (0 Bft) S-SO 157 6,6 C 9,2 C 0,0 km/h (0 Bft)
25.05.2019 05:14 9,2 C 9,7 C 12,6 C 84 % 1014,0 hPa 0,0 l/m 0,0 km/h (0 Bft) O-SO 112 6,6 C 9,2 C 0,0 km/h (0 Bft)
25.05.2019 05:12 9,2 C 9,6 C 12,6 C 84 % 1014,0 hPa 0,0 l/m 0,0 km/h (0 Bft) O 90 6,6 C 9,2 C 0,0 km/h (0 Bft)
25.05.2019 05:10 9,2 C 9,4 C 12,6 C 84 % 1014,0 hPa 0,0 l/m 0,0 km/h (0 Bft) SO 135 6,6 C 9,2 C 0,0 km/h (0 Bft)
25.05.2019 05:08 9,1 C 9,4 C 12,6 C 84 % 1014,0 hPa 0,0 l/m 0,0 km/h (0 Bft) W-NW 292 6,5 C 9,1 C 0,0 km/h (0 Bft)
25.05.2019 05:06 9,1 C 9,2 C 12,6 C 84 % 1013,8 hPa 0,0 l/m 0,0 km/h (0 Bft) W-NW 292 6,5 C 9,1 C 0,0 km/h (0 Bft)
25.05.2019 05:04 9,2 C 9,2 C 12,6 C 84 % 1013,8 hPa 0,0 l/m 0,0 km/h (0 Bft) NW 315 6,6 C 9,2 C 0,0 km/h (0 Bft)
25.05.2019 05:01 9,2 C 9,2 C 12,6 C 84 % 1013,8 hPa 0,0 l/m 0,0 km/h (0 Bft) O 90 6,6 C 9,2 C 0,0 km/h (0 Bft)
25.05.2019 05:00 9,2 C 9,1 C 12,6 C 84 % 1013,8 hPa 0,0 l/m 0,0 km/h (0 Bft) N 360 6,6 C 9,2 C 0,0 km/h (0 Bft)
25.05.2019 04:58 9,2 C 9,1 C 12,6 C 84 % 1013,8 hPa 0,0 l/m 0,0 km/h (0 Bft) N 360 6,6 C 9,2 C 0,0 km/h (0 Bft)
25.05.2019 04:56 9,2 C 9,1 C 12,6 C 84 % 1013,8 hPa 0,0 l/m 0,0 km/h (0 Bft) N-NO 22 6,6 C 9,2 C 0,0 km/h (0 Bft)
25.05.2019 04:54 9,2 C 9,0 C 12,6 C 84 % 1013,8 hPa 0,0 l/m 0,0 km/h (0 Bft) SO 135 6,6 C 9,2 C 2,5 km/h (1 Bft)
25.05.2019 04:52 9,2 C 9,0 C 12,6 C 84 % 1013,8 hPa 0,0 l/m 0,0 km/h (0 Bft) S 180 6,6 C 9,2 C 0,0 km/h (0 Bft)
25.05.2019 04:50 9,3 C 9,0 C 12,6 C 84 % 1013,8 hPa 0,0 l/m 0,0 km/h (0 Bft) W-NW 292 6,7 C 9,3 C 0,0 km/h (0 Bft)
25.05.2019 04:48 9,5 C 9,0 C 12,6 C 84 % 1013,8 hPa 0,0 l/m 0,0 km/h (0 Bft) S 180 6,9 C 9,5 C 0,0 km/h (0 Bft)
25.05.2019 04:46 9,5 C 9,1 C 12,6 C 84 % 1013,8 hPa 0,0 l/m 0,0 km/h (0 Bft) S 180 6,9 C 9,5 C 0,0 km/h (0 Bft)
25.05.2019 04:44 9,5 C 9,1 C 12,7 C 84 % 1013,8 hPa 0,0 l/m 0,0 km/h (0 Bft) N 360 6,9 C 9,5 C 0,0 km/h (0 Bft)
25.05.2019 04:42 9,3 C 9,1 C 12,7 C 84 % 1013,8 hPa 0,0 l/m 0,0 km/h (0 Bft) O 90 6,7 C 9,3 C 0,0 km/h (0 Bft)
25.05.2019 04:40 9,3 C 9,3 C 12,7 C 84 % 1013,8 hPa 0,0 l/m 0,0 km/h (0 Bft) N 360 6,7 C 9,3 C 0,0 km/h (0 Bft)
25.05.2019 04:38 9,3 C 9,3 C 12,7 C 84 % 1013,8 hPa 0,0 l/m 0,2 km/h (0 Bft) N-NW 337 6,7 C 9,3 C 0,0 km/h (0 Bft)
25.05.2019 04:36 9,4 C 9,4 C 12,7 C 84 % 1013,8 hPa 0,0 l/m 0,3 km/h (0 Bft) NW 315 6,8 C 9,4 C 0,0 km/h (0 Bft)
25.05.2019 04:34 9,4 C 9,6 C 12,7 C 84 % 1013,8 hPa 0,0 l/m 0,8 km/h (0 Bft) S-SO 157 6,8 C 9,4 C 0,0 km/h (0 Bft)
25.05.2019 04:32 9,5 C 9,7 C 12,7 C 84 % 1013,8 hPa 0,0 l/m 1,0 km/h (0 Bft) S-SO 157 6,9 C 9,5 C 0,0 km/h (0 Bft)
25.05.2019 04:30 9,8 C 9,8 C 12,7 C 84 % 1013,8 hPa 0,0 l/m 1,0 km/h (0 Bft) SO 135 7,2 C 9,8 C 0,0 km/h (0 Bft)
25.05.2019 04:28 9,8 C 9,9 C 12,7 C 84 % 1013,8 hPa 0,0 l/m 1,8 km/h (1 Bft) O 90 7,2 C 9,8 C 2,3 km/h (1 Bft)
25.05.2019 04:26 9,8 C 9,9 C 12,7 C 84 % 1014,0 hPa 0,0 l/m 1,8 km/h (1 Bft) O 90 7,2 C 9,8 C 2,3 km/h (1 Bft)
25.05.2019 04:24 9,8 C 9,9 C 12,7 C 84 % 1014,0 hPa 0,0 l/m 1,3 km/h (1 Bft) O-NO 67 7,2 C 9,8 C 3,5 km/h (1 Bft)
25.05.2019 04:22 9,9 C 9,9 C 12,7 C 84 % 1014,0 hPa 0,0 l/m 1,0 km/h (0 Bft) O 90 7,3 C 9,9 C 0,0 km/h (0 Bft)
25.05.2019 04:20 9,9 C 9,9 C 12,7 C 84 % 1014,0 hPa 0,0 l/m 1,0 km/h (0 Bft) O-SO 112 7,3 C 9,9 C 0,0 km/h (0 Bft)
25.05.2019 04:18 9,6 C 9,8 C 12,7 C 84 % 1014,0 hPa 0,0 l/m 1,0 km/h (0 Bft) O-NO 67 7,0 C 9,6 C 4,1 km/h (1 Bft)
25.05.2019 04:16 9,6 C 9,8 C 12,7 C 84 % 1014,0 hPa 0,0 l/m 0,8 km/h (0 Bft) O-NO 67 7,0 C 9,6 C 4,4 km/h (1 Bft)
25.05.2019 04:14 9,4 C 9,8 C 12,7 C 84 % 1014,0 hPa 0,0 l/m 0,5 km/h (0 Bft) O 90 6,8 C 9,4 C 0,0 km/h (0 Bft)
25.05.2019 04:12 9,4 C 9,8 C 12,7 C 84 % 1014,0 hPa 0,0 l/m 0,5 km/h (0 Bft) S-SO 157 6,8 C 9,4 C 0,0 km/h (0 Bft)
25.05.2019 04:10 9,8 C 9,8 C 12,7 C 85 % 1014,0 hPa 0,0 l/m 0,6 km/h (0 Bft) S-SO 157 7,4 C 9,8 C 0,0 km/h (0 Bft)
25.05.2019 04:08 9,6 C 9,7 C 12,7 C 85 % 1014,0 hPa 0,0 l/m 1,4 km/h (1 Bft) O-NO 67 7,2 C 9,6 C 2,3 km/h (1 Bft)
25.05.2019 04:06 9,6 C 9,7 C 12,7 C 85 % 1013,8 hPa 0,0 l/m 1,4 km/h (1 Bft) O-NO 67 7,2 C 9,6 C 2,3 km/h (1 Bft)
25.05.2019 04:04 9,2 C 9,6 C 12,7 C 85 % 1013,8 hPa 0,0 l/m 1,6 km/h (1 Bft) O-NO 67 6,8 C 9,2 C 0,0 km/h (0 Bft)
25.05.2019 04:02 9,1 C 9,6 C 12,7 C 85 % 1013,8 hPa 0,0 l/m 1,9 km/h (1 Bft) SO 135 6,7 C 9,1 C 0,0 km/h (0 Bft)
25.05.2019 04:00 9,1 C 9,6 C 12,7 C 85 % 1013,8 hPa 0,0 l/m 1,9 km/h (1 Bft) SO 135 6,7 C 9,1 C 2,9 km/h (1 Bft)
25.05.2019 03:58 9,0 C 9,6 C 12,7 C 85 % 1013,8 hPa 0,0 l/m 1,6 km/h (1 Bft) O-SO 112 6,6 C 9,0 C 3,9 km/h (1 Bft)
25.05.2019 03:56 9,0 C 9,5 C 12,7 C 85 % 1013,8 hPa 0,0 l/m 1,1 km/h (1 Bft) O-NO 67 6,6 C 9,0 C 3,9 km/h (1 Bft)
25.05.2019 03:54 9,0 C 9,5 C 12,7 C 85 % 1013,8 hPa 0,0 l/m 0,8 km/h (0 Bft) NO 45 6,6 C 9,0 C 4,2 km/h (1 Bft)
25.05.2019 03:52 8,9 C 9,4 C 12,7 C 85 % 1013,8 hPa 0,0 l/m 0,3 km/h (0 Bft) O-NO 67 6,5 C 8,9 C 2,7 km/h (1 Bft)
25.05.2019 03:50 8,9 C 9,4 C 12,7 C 85 % 1013,8 hPa 0,0 l/m 0,2 km/h (0 Bft) O-NO 67 6,5 C 8,9 C 0,0 km/h (0 Bft)
25.05.2019 03:48 8,7 C 9,3 C 12,8 C 85 % 1013,8 hPa 0,0 l/m 0,2 km/h (0 Bft) N-NW 337 6,3 C 8,7 C 0,0 km/h (0 Bft)
25.05.2019 03:46 8,7 C 9,3 C 12,8 C 85 % 1014,0 hPa 0,0 l/m 0,2 km/h (0 Bft) N-NW 337 6,3 C 8,7 C 0,0 km/h (0 Bft)
25.05.2019 03:44 8,8 C 9,3 C 12,8 C 85 % 1014,0 hPa 0,0 l/m 0,2 km/h (0 Bft) SO 135 6,4 C 8,8 C 2,1 km/h (1 Bft)
25.05.2019 03:42 8,7 C 9,3 C 12,8 C 85 % 1014,0 hPa 0,0 l/m 0,0 km/h (0 Bft) SO 135 6,3 C 8,7 C 2,3 km/h (1 Bft)
25.05.2019 03:40 8,6 C 9,3 C 12,8 C 85 % 1014,0 hPa 0,0 l/m 0,0 km/h (0 Bft) O-NO 67 6,2 C 8,6 C 0,0 km/h (0 Bft)
25.05.2019 03:38 8,4 C 9,1 C 12,8 C 85 % 1014,0 hPa 0,0 l/m 0,2 km/h (0 Bft) N-NO 22 6,0 C 8,4 C 0,0 km/h (0 Bft)
25.05.2019 03:36 8,4 C 9,1 C 12,8 C 85 % 1014,0 hPa 0,0 l/m 0,3 km/h (0 Bft) SO 135 6,0 C 8,4 C 0,0 km/h (0 Bft)
25.05.2019 03:34 8,3 C 9,1 C 12,8 C 85 % 1014,0 hPa 0,0 l/m 0,3 km/h (0 Bft) NO 45 5,9 C 8,3 C 0,0 km/h (0 Bft)
25.05.2019 03:32 8,2 C 9,1 C 12,8 C 85 % 1014,0 hPa 0,0 l/m 0,3 km/h (0 Bft) S-SO 157 5,8 C 8,2 C 0,0 km/h (0 Bft)
25.05.2019 03:30 8,2 C 9,1 C 12,9 C 85 % 1014,0 hPa 0,0 l/m 0,3 km/h (0 Bft) S-SO 157 5,8 C 8,2 C 0,0 km/h (0 Bft)
25.05.2019 03:28 8,2 C 9,0 C 12,9 C 85 % 1014,0 hPa 0,0 l/m 0,0 km/h (0 Bft) SO 135 5,8 C 8,2 C 0,0 km/h (0 Bft)
25.05.2019 03:26 8,2 C 9,0 C 12,9 C 85 % 1013,9 hPa 0,0 l/m 0,0 km/h (0 Bft) SO 135 5,8 C 8,2 C 0,0 km/h (0 Bft)
25.05.2019 03:24 8,1 C 8,8 C 12,9 C 85 % 1013,9 hPa 0,0 l/m 0,2 km/h (0 Bft) SO 135 5,7 C 8,1 C 0,0 km/h (0 Bft)
25.05.2019 03:22 8,1 C 8,8 C 12,9 C 85 % 1013,9 hPa 0,0 l/m 0,2 km/h (0 Bft) S-SW 202 5,7 C 8,1 C 0,0 km/h (0 Bft)
25.05.2019 03:20 7,9 C 8,7 C 12,9 C 85 % 1013,9 hPa 0,0 l/m 0,3 km/h (0 Bft) SW 225 5,5 C 7,9 C 0,0 km/h (0 Bft)
25.05.2019 03:18 7,9 C 8,7 C 12,9 C 85 % 1013,9 hPa 0,0 l/m 0,3 km/h (0 Bft) W 270 5,5 C 7,9 C 0,0 km/h (0 Bft)
25.05.2019 03:16 7,9 C 8,6 C 12,9 C 85 % 1013,9 hPa 0,0 l/m 0,3 km/h (0 Bft) W 270 5,5 C 7,9 C 0,0 km/h (0 Bft)
25.05.2019 03:14 8,1 C 8,6 C 12,9 C 84 % 1013,9 hPa 0,0 l/m 0,3 km/h (0 Bft) NW 315 5,6 C 8,1 C 2,9 km/h (1 Bft)
25.05.2019 03:12 8,1 C 8,4 C 13,0 C 84 % 1013,9 hPa 0,0 l/m 0,0 km/h (0 Bft) O-NO 67 5,6 C 8,1 C 0,0 km/h (0 Bft)
25.05.2019 03:10 8,1 C 8,4 C 13,0 C 84 % 1013,9 hPa 0,0 l/m 0,0 km/h (0 Bft) O-NO 67 5,6 C 8,1 C 0,0 km/h (0 Bft)
25.05.2019 03:08 8,1 C 8,4 C 13,0 C 84 % 1013,9 hPa 0,0 l/m 0,0 km/h (0 Bft) O-NO 67 5,6 C 8,1 C 0,0 km/h (0 Bft)
25.05.2019 03:06 8,1 C 8,4 C 13,0 C 84 % 1014,1 hPa 0,0 l/m 0,0 km/h (0 Bft) O-NO 67 5,6 C 8,1 C 0,0 km/h (0 Bft)
25.05.2019 03:04 8,1 C 8,4 C 13,0 C 84 % 1014,1 hPa 0,0 l/m 0,0 km/h (0 Bft) O-NO 67 5,6 C 8,1 C 0,0 km/h (0 Bft)
25.05.2019 03:02 8,2 C 8,4 C 13,0 C 84 % 1014,1 hPa 0,0 l/m 0,0 km/h (0 Bft) O-NO 67 5,7 C 8,2 C 0,0 km/h (0 Bft)
25.05.2019 03:00 8,1 C 8,2 C 13,0 C 84 % 1014,1 hPa 0,0 l/m 0,0 km/h (0 Bft) S-SO 157 5,6 C 8,1 C 0,0 km/h (0 Bft)
25.05.2019 02:58 7,9 C 8,2 C 13,0 C 84 % 1014,1 hPa 0,0 l/m 0,0 km/h (0 Bft) W-NW 292 5,4 C 7,9 C 0,0 km/h (0 Bft)
25.05.2019 02:56 7,9 C 8,1 C 13,0 C 84 % 1014,1 hPa 0,0 l/m 0,0 km/h (0 Bft) S-SO 157 5,4 C 7,9 C 0,0 km/h (0 Bft)
25.05.2019 02:54 8,1 C 8,1 C 13,0 C 84 % 1014,1 hPa 0,0 l/m 0,0 km/h (0 Bft) NW 315 5,6 C 8,1 C 0,0 km/h (0 Bft)
25.05.2019 02:52 8,1 C 7,9 C 13,0 C 84 % 1014,1 hPa 0,0 l/m 0,0 km/h (0 Bft) O-SO 112 5,6 C 8,1 C 0,0 km/h (0 Bft)
25.05.2019 02:50 7,9 C 7,8 C 13,0 C 84 % 1014,1 hPa 0,0 l/m 0,0 km/h (0 Bft) S-SO 157 5,4 C 7,9 C 0,0 km/h (0 Bft)
25.05.2019 02:48 7,9 C 7,5 C 13,0 C 84 % 1014,1 hPa 0,0 l/m 0,0 km/h (0 Bft) SO 135 5,4 C 7,9 C 0,0 km/h (0 Bft)
25.05.2019 02:46 7,9 C 7,1 C 13,0 C 84 % 1014,2 hPa 0,0 l/m 0,0 km/h (0 Bft) SO 135 5,4 C 7,9 C 0,0 km/h (0 Bft)
25.05.2019 02:44 7,9 C 6,9 C 13,0 C 84 % 1014,2 hPa 0,0 l/m 0,0 km/h (0 Bft) O-NO 67 5,4 C 7,9 C 0,0 km/h (0 Bft)
25.05.2019 02:42 7,8 C 6,6 C 13,0 C 84 % 1014,2 hPa 0,0 l/m 0,0 km/h (0 Bft) N-NW 337 5,3 C 7,8 C 0,0 km/h (0 Bft)
25.05.2019 02:40 7,7 C 6,5 C 13,1 C 84 % 1014,2 hPa 0,0 l/m 0,0 km/h (0 Bft) NW 315 5,2 C 7,7 C 0,0 km/h (0 Bft)
25.05.2019 02:38 7,7 C 6,2 C 13,1 C 83 % 1014,2 hPa 0,0 l/m 0,0 km/h (0 Bft) SW 225 5,0 C 7,7 C 0,0 km/h (0 Bft)
25.05.2019 02:36 7,7 C 6,1 C 13,1 C 83 % 1014,2 hPa 0,0 l/m 0,0 km/h (0 Bft) S 180 5,0 C 7,7 C 0,0 km/h (0 Bft)
25.05.2019 02:34 7,7 C 6,1 C 13,1 C 83 % 1014,2 hPa 0,0 l/m 0,0 km/h (0 Bft) S-SO 157 5,0 C 7,7 C 0,0 km/h (0 Bft)
25.05.2019 02:32 7,7 C 6,0 C 13,1 C 83 % 1014,2 hPa 0,0 l/m 0,0 km/h (0 Bft) S 180 5,0 C 7,7 C 0,0 km/h (0 Bft)
25.05.2019 02:30 7,7 C 5,9 C 13,0 C 83 % 1014,2 hPa 0,0 l/m 0,0 km/h (0 Bft) N-NO 22 5,0 C 7,7 C 0,0 km/h (0 Bft)
25.05.2019 02:28 7,8 C 5,8 C 13,0 C 83 % 1014,2 hPa 0,0 l/m 0,0 km/h (0 Bft) S-SW 202 5,1 C 7,8 C 0,0 km/h (0 Bft)
25.05.2019 02:26 7,8 C 5,7 C 13,0 C 83 % 1014,0 hPa 0,0 l/m 0,0 km/h (0 Bft) S-SW 202 5,1 C 7,8 C 0,0 km/h (0 Bft)
25.05.2019 02:24 8,1 C 5,7 C 13,0 C 83 % 1014,0 hPa 0,0 l/m 0,0 km/h (0 Bft) W-SW 247 5,4 C 8,1 C 0,0 km/h (0 Bft)
25.05.2019 02:22 8,2 C 5,8 C 13,0 C 83 % 1014,0 hPa 0,0 l/m 0,0 km/h (0 Bft) W-NW 292 5,5 C 8,2 C 0,0 km/h (0 Bft)
25.05.2019 02:20 8,2 C 5,9 C 13,0 C 83 % 1014,0 hPa 0,0 l/m 0,0 km/h (0 Bft) SO 135 5,5 C 8,2 C 0,0 km/h (0 Bft)
25.05.2019 02:18 8,3 C 6,0 C 13,0 C 83 % 1014,0 hPa 0,0 l/m 0,0 km/h (0 Bft) NW 315 5,6 C 8,3 C 0,0 km/h (0 Bft)
25.05.2019 02:16 8,3 C 6,2 C 13,0 C 83 % 1014,0 hPa 0,0 l/m 0,0 km/h (0 Bft) N-NW 337 5,6 C 8,3 C 0,0 km/h (0 Bft)
25.05.2019 02:14 8,3 C 6,3 C 13,0 C 83 % 1014,0 hPa 0,0 l/m 0,0 km/h (0 Bft) W 270 5,6 C 8,3 C 0,0 km/h (0 Bft)
25.05.2019 02:12 8,4 C 6,7 C 13,1 C 83 % 1014,0 hPa 0,0 l/m 0,0 km/h (0 Bft) W-NW 292 5,7 C 8,4 C 0,0 km/h (0 Bft)
25.05.2019 02:10 8,5 C 6,9 C 13,1 C 83 % 1014,0 hPa 0,0 l/m 0,0 km/h (0 Bft) W-SW 247 5,8 C 8,5 C 0,0 km/h (0 Bft)
25.05.2019 02:08 8,5 C 6,9 C 13,1 C 83 % 1014,0 hPa 0,0 l/m 0,0 km/h (0 Bft) O-SO 112 5,8 C 8,5 C 0,0 km/h (0 Bft)
25.05.2019 02:06 8,5 C 7,0 C 13,1 C 83 % 1014,0 hPa 0,0 l/m 0,0 km/h (0 Bft) O-SO 112 5,8 C 8,5 C 0,0 km/h (0 Bft)
25.05.2019 02:04 8,6 C 7,0 C 13,1 C 82 % 1014,0 hPa 0,0 l/m 0,0 km/h (0 Bft) O-NO 67 5,7 C 8,6 C 0,0 km/h (0 Bft)
25.05.2019 02:02 8,6 C 7,0 C 13,1 C 82 % 1014,0 hPa 0,0 l/m 0,0 km/h (0 Bft) O 90 5,7 C 8,6 C 0,0 km/h (0 Bft)
25.05.2019 02:00 8,6 C 7,0 C 13,1 C 82 % 1014,0 hPa 0,0 l/m 0,0 km/h (0 Bft) O-NO 67 5,7 C 8,6 C 0,0 km/h (0 Bft)
25.05.2019 01:58 8,6 C 7,2 C 13,1 C 82 % 1014,0 hPa 0,0 l/m 0,0 km/h (0 Bft) O-NO 67 5,7 C 8,6 C 0,0 km/h (0 Bft)
25.05.2019 01:56 8,7 C 7,3 C 13,1 C 82 % 1014,0 hPa 0,0 l/m 0,0 km/h (0 Bft) SO 135 5,8 C 8,7 C 0,0 km/h (0 Bft)
25.05.2019 01:54 8,8 C 7,5 C 13,1 C 82 % 1014,0 hPa 0,0 l/m 0,0 km/h (0 Bft) SO 135 5,9 C 8,8 C 0,0 km/h (0 Bft)
25.05.2019 01:52 8,7 C 7,9 C 13,1 C 82 % 1014,0 hPa 0,0 l/m 0,0 km/h (0 Bft) SO 135 5,8 C 8,7 C 0,0 km/h (0 Bft)
25.05.2019 01:50 8,8 C 8,0 C 13,1 C 82 % 1014,0 hPa 0,0 l/m 0,0 km/h (0 Bft) S-SW 202 5,9 C 8,8 C 0,0 km/h (0 Bft)
25.05.2019 01:48 8,9 C 8,2 C 13,1 C 82 % 1014,0 hPa 0,0 l/m 0,2 km/h (0 Bft) S-SO 157 6,0 C 8,9 C 0,0 km/h (0 Bft)
25.05.2019 01:46 8,9 C 8,5 C 13,1 C 82 % 1014,2 hPa 0,0 l/m 0,2 km/h (0 Bft) S-SO 157 6,0 C 8,9 C 0,0 km/h (0 Bft)
25.05.2019 01:44 9,0 C 8,7 C 13,1 C 82 % 1014,2 hPa 0,0 l/m 0,3 km/h (0 Bft) SW 225 6,1 C 9,0 C 0,0 km/h (0 Bft)
25.05.2019 01:42 9,1 C 8,9 C 13,2 C 82 % 1014,2 hPa 0,0 l/m 0,6 km/h (0 Bft) S-SW 202 6,2 C 9,1 C 0,0 km/h (0 Bft)
25.05.2019 01:40 9,2 C 8,9 C 13,2 C 82 % 1014,2 hPa 0,0 l/m 1,4 km/h (1 Bft) SO 135 6,3 C 9,2 C 0,0 km/h (0 Bft)
25.05.2019 01:38 9,1 C 8,9 C 13,2 C 82 % 1014,2 hPa 0,0 l/m 2,1 km/h (1 Bft) O-NO 67 6,2 C 9,1 C 0,0 km/h (0 Bft)
25.05.2019 01:36 9,4 C 9,0 C 13,2 C 82 % 1014,2 hPa 0,0 l/m 2,9 km/h (1 Bft) SO 135 6,5 C 9,4 C 0,0 km/h (0 Bft)
25.05.2019 01:34 9,4 C 9,0 C 13,2 C 82 % 1014,2 hPa 0,0 l/m 3,7 km/h (1 Bft) O-NO 67 6,5 C 9,4 C 7,0 km/h (2 Bft)
25.05.2019 01:32 9,4 C 9,1 C 13,2 C 82 % 1014,2 hPa 0,0 l/m 4,3 km/h (1 Bft) O-NO 67 6,5 C 9,4 C 3,7 km/h (1 Bft)
25.05.2019 01:30 9,4 C 9,0 C 13,2 C 82 % 1014,2 hPa 0,0 l/m 4,2 km/h (1 Bft) O-NO 67 6,5 C 9,4 C 6,2 km/h (2 Bft)
25.05.2019 01:28 9,2 C 9,0 C 13,2 C 82 % 1014,2 hPa 0,0 l/m 3,2 km/h (1 Bft) O-NO 67 6,3 C 9,2 C 6,6 km/h (2 Bft)
25.05.2019 01:26 9,2 C 9,0 C 13,2 C 82 % 1014,4 hPa 0,0 l/m 3,2 km/h (1 Bft) O-NO 67 6,3 C 9,2 C 6,6 km/h (2 Bft)
25.05.2019 01:24 9,2 C 8,9 C 13,2 C 82 % 1014,4 hPa 0,0 l/m 2,4 km/h (1 Bft) O-NO 67 6,3 C 9,2 C 6,2 km/h (2 Bft)
25.05.2019 01:22 9,4 C 8,7 C 13,2 C 82 % 1014,4 hPa 0,0 l/m 1,6 km/h (1 Bft) O-NO 67 6,5 C 9,4 C 4,6 km/h (1 Bft)
25.05.2019 01:20 9,2 C 8,6 C 13,2 C 82 % 1014,4 hPa 0,0 l/m 1,3 km/h (1 Bft) O-NO 67 6,3 C 9,2 C 3,9 km/h (1 Bft)
25.05.2019 01:18 9,1 C 8,5 C 13,2 C 82 % 1014,4 hPa 0,0 l/m 0,8 km/h (0 Bft) O-NO 67 6,2 C 9,1 C 2,5 km/h (1 Bft)
25.05.2019 01:16 9,0 C 8,4 C 13,2 C 82 % 1014,4 hPa 0,0 l/m 0,6 km/h (0 Bft) O-NO 67 6,1 C 9,0 C 2,9 km/h (1 Bft)
25.05.2019 01:14 9,1 C 8,4 C 13,2 C 82 % 1014,4 hPa 0,0 l/m 0,5 km/h (0 Bft) W-SW 247 6,2 C 9,1 C 0,0 km/h (0 Bft)
25.05.2019 01:12 9,1 C 8,4 C 13,2 C 82 % 1014,4 hPa 0,0 l/m 0,5 km/h (0 Bft) O-NO 67 6,2 C 9,1 C 1,9 km/h (1 Bft)
25.05.2019 01:10 8,9 C 8,4 C 13,3 C 82 % 1014,4 hPa 0,0 l/m 0,5 km/h (0 Bft) O-SO 112 6,0 C 8,9 C 2,7 km/h (1 Bft)
25.05.2019 01:08 8,9 C 8,5 C 13,3 C 82 % 1014,4 hPa 0,0 l/m 0,5 km/h (0 Bft) O-NO 67 6,0 C 8,9 C 2,5 km/h (1 Bft)
25.05.2019 01:06 8,9 C 8,4 C 13,3 C 82 % 1014,6 hPa 0,0 l/m 0,5 km/h (0 Bft) O-NO 67 6,0 C 8,9 C 2,5 km/h (1 Bft)
25.05.2019 01:04 8,8 C 8,2 C 13,3 C 82 % 1014,6 hPa 0,0 l/m 0,5 km/h (0 Bft) O-NO 67 5,9 C 8,8 C 0,0 km/h (0 Bft)
25.05.2019 01:02 8,7 C 8,2 C 13,3 C 82 % 1014,6 hPa 0,0 l/m 0,5 km/h (0 Bft) NO 45 5,8 C 8,7 C 0,0 km/h (0 Bft)
25.05.2019 01:00 8,6 C 8,0 C 13,4 C 82 % 1014,6 hPa 0,0 l/m 0,5 km/h (0 Bft) O-NO 67 5,7 C 8,6 C 2,7 km/h (1 Bft)
25.05.2019 00:58 8,7 C 7,8 C 13,4 C 82 % 1014,6 hPa 0,0 l/m 1,0 km/h (0 Bft) O-NO 67 5,8 C 8,7 C 0,0 km/h (0 Bft)
25.05.2019 00:56 8,7 C 7,7 C 13,4 C 82 % 1014,6 hPa 0,0 l/m 1,6 km/h (1 Bft) O-NO 67 5,8 C 8,7 C 2,1 km/h (1 Bft)
25.05.2019 00:54 8,4 C 7,3 C 13,4 C 82 % 1014,6 hPa 0,0 l/m 2,1 km/h (1 Bft) O-SO 112 5,5 C 8,4 C 0,0 km/h (0 Bft)
25.05.2019 00:52 8,1 C 7,1 C 13,4 C 82 % 1014,6 hPa 0,0 l/m 2,7 km/h (1 Bft) O-SO 112 5,2 C 8,1 C 2,7 km/h (1 Bft)
25.05.2019 00:50 8,4 C 6,9 C 13,4 C 82 % 1014,6 hPa 0,0 l/m 3,2 km/h (1 Bft) SO 135 5,5 C 8,4 C 0,0 km/h (0 Bft)
25.05.2019 00:48 8,2 C 6,5 C 13,4 C 82 % 1014,6 hPa 0,0 l/m 3,1 km/h (1 Bft) O-NO 67 5,3 C 8,2 C 3,5 km/h (1 Bft)
25.05.2019 00:46 8,2 C 6,0 C 13,4 C 82 % 1014,6 hPa 0,0 l/m 3,1 km/h (1 Bft) O-NO 67 5,3 C 8,2 C 3,5 km/h (1 Bft)
25.05.2019 00:44 8,2 C 5,8 C 13,5 C 81 % 1014,6 hPa 0,0 l/m 2,9 km/h (1 Bft) O-NO 67 5,1 C 8,2 C 5,8 km/h (2 Bft)
25.05.2019 00:42 8,2 C 5,6 C 13,5 C 81 % 1014,6 hPa 0,0 l/m 2,6 km/h (1 Bft) O 90 5,1 C 8,2 C 4,6 km/h (1 Bft)
25.05.2019 00:40 8,3 C 5,2 C 13,5 C 81 % 1014,6 hPa 0,0 l/m 2,4 km/h (1 Bft) O-NO 67 5,2 C 8,3 C 3,9 km/h (1 Bft)
25.05.2019 00:38 8,2 C 5,1 C 13,5 C 81 % 1014,6 hPa 0,0 l/m 2,3 km/h (1 Bft) O-NO 67 5,1 C 8,2 C 3,5 km/h (1 Bft)
25.05.2019 00:36 8,1 C 4,7 C 13,5 C 81 % 1014,6 hPa 0,0 l/m 1,9 km/h (1 Bft) O-NO 67 5,0 C 8,1 C 3,5 km/h (1 Bft)
25.05.2019 00:34 8,1 C 4,6 C 13,5 C 81 % 1014,6 hPa 0,0 l/m 1,8 km/h (1 Bft) O-NO 67 5,0 C 8,1 C 4,2 km/h (1 Bft)
25.05.2019 00:32 7,8 C 4,6 C 13,5 C 81 % 1014,6 hPa 0,0 l/m 1,6 km/h (1 Bft) O-NO 67 4,7 C 7,8 C 2,9 km/h (1 Bft)
25.05.2019 00:30 7,9 C 4,6 C 13,5 C 81 % 1014,6 hPa 0,0 l/m 1,3 km/h (1 Bft) O-NO 67 4,8 C 7,9 C 3,7 km/h (1 Bft)
25.05.2019 00:28 7,7 C 4,5 C 13,5 C 81 % 1014,6 hPa 0,0 l/m 0,8 km/h (0 Bft) O-NO 67 4,7 C 7,7 C 1,9 km/h (1 Bft)
25.05.2019 00:26 7,7 C 4,4 C 13,4 C 81 % 1014,8 hPa 0,0 l/m 0,8 km/h (0 Bft) O-NO 67 4,7 C 7,7 C 1,9 km/h (1 Bft)
25.05.2019 00:24 7,6 C 4,5 C 13,4 C 80 % 1014,8 hPa 0,0 l/m 0,6 km/h (0 Bft) O-NO 67 4,4 C 7,6 C 2,9 km/h (1 Bft)
25.05.2019 00:22 7,9 C 4,7 C 13,5 C 80 % 1014,8 hPa 0,0 l/m 0,3 km/h (0 Bft) NO 45 4,7 C 7,9 C 2,1 km/h (1 Bft)
25.05.2019 00:20 8,2 C 4,9 C 13,5 C 80 % 1014,8 hPa 0,0 l/m 0,0 km/h (0 Bft) O-NO 67 5,0 C 8,2 C 1,9 km/h (1 Bft)
25.05.2019 00:18 8,3 C 4,7 C 13,5 C 80 % 1014,8 hPa 0,0 l/m 0,2 km/h (0 Bft) N-NO 22 5,1 C 8,3 C 0,0 km/h (0 Bft)
25.05.2019 00:16 8,2 C 4,7 C 13,5 C 80 % 1014,8 hPa 0,0 l/m 0,3 km/h (0 Bft) N 360 5,0 C 8,2 C 0,0 km/h (0 Bft)
25.05.2019 00:14 8,4 C 4,7 C 13,5 C 80 % 1014,8 hPa 0,0 l/m 0,6 km/h (0 Bft) W-NW 292 5,2 C 8,4 C 0,0 km/h (0 Bft)
25.05.2019 00:12 8,5 C 5,2 C 13,7 C 80 % 1014,8 hPa 0,0 l/m 0,8 km/h (0 Bft) S-SW 202 5,3 C 8,5 C 1,9 km/h (1 Bft)
25.05.2019 00:10 8,5 C 5,2 C 13,7 C 80 % 1014,8 hPa 0,0 l/m 0,8 km/h (0 Bft) S-SW 202 5,3 C 8,5 C 1,9 km/h (1 Bft)
25.05.2019 00:08 8,5 C 5,2 C 13,7 C 80 % 1014,8 hPa 0,0 l/m 0,8 km/h (0 Bft) S-SW 202 5,3 C 8,5 C 1,9 km/h (1 Bft)
25.05.2019 00:06 8,5 C 5,2 C 13,7 C 80 % 1014,5 hPa 0,0 l/m 0,8 km/h (0 Bft) S-SW 202 5,3 C 8,5 C 1,9 km/h (1 Bft)
25.05.2019 00:04 8,5 C 5,2 C 13,7 C 80 % 1014,5 hPa 0,0 l/m 0,8 km/h (0 Bft) S-SW 202 5,3 C 8,5 C 1,9 km/h (1 Bft)
25.05.2019 00:02 8,5 C 5,2 C 13,7 C 80 % 1014,5 hPa 0,0 l/m 1,0 km/h (0 Bft) O-NO 67 5,3 C 8,5 C 3,9 km/h (1 Bft)
25.05.2019 00:00 7,9 C 5,1 C 13,7 C 80 % 1014,5 hPa 0,0 l/m 1,3 km/h (1 Bft) S-SO 157 4,7 C 7,9 C 0,0 km/h (0 Bft)
_ Min-Zeit 00:24 00:26 07:14 15:00 16:48 - 00:20 - - 00:24 00:24 00:00
Minimum _ 7,6 C 4,4 C 12,4 C 46 % 1013,4 hPa - 0,0 km/h (0 Bft) - - 4,4 C 7,6 C 0,0 km/h (0 Bft)
_ Max-Zeit 14:44 14:34 16:56 03:16 11:48 00:00 14:54 - - 09:12 14:44 14:54
Maximum _ 21,7 C 35,4 C 15,5 C 85 % 1015,0 hPa 0,0 l/m 11,9 km/h
NO (2 Bft)
- - 11,4 C 21,7 C 29,7 km/h
NO (5 Bft)
Durchschnitt _ 14,5 C 16,7 C 13,4 C 67 % 1014,4 hPa #0,0 l/m 1,9 km/h (1 Bft) O-NO - 8,1 C 14,5 C 3,1 km/h (1 Bft)